GFSNE_250_rhum_027.txt.gz
RH
100 100 100 100 100 100 100 100 100 100 100 100 97 86 81 80 78 68 71 60 57 59 66 68 58 54 56 68 64 64 62 56 51 47 46 45 45 46
100 100 100 100 100 100 100 100 100 100 100 100 96 63 56 58 64 80 70 54 54 65 65 58 64 69 66 59 56 52 46 41 36 35 36 38 37 34
100 100 100 100 100 100 100 100 100 100 100 100 92 99 100 84 64 52 52 59 57 59 56 60 70 69 66 47 45 50 45 44 47 48 46 47 46 47
100 100 100 100 100 100 100 100 100 100 100 100 100 100 97 57 64 52 57 60 56 58 53 57 55 54 38 40 45 52 49 45 39 38 37 37 36 35
100 100 100 100 100 100 100 100 100 100 100 100 100 89 100 68 53 53 58 57 59 64 56 53 44 45 42 38 37 36 32 28 27 27 26 26 24 22
100 100 100 100 99 94 88 77 79 100 100 100 100 76 54 60 60 58 52 56 65 61 48 45 41 34 30 30 31 27 25 23 20 18 16 13 10 9
86 100 100 100 100 99 87 83 99 100 100 83 68 56 53 54 55 46 51 57 63 55 44 40 38 36 32 32 26 20 13 11 11 11 9 7 6 5
100 100 100 92 100 95 96 98 100 100 100 83 62 57 61 49 46 51 50 46 45 51 45 46 38 38 36 28 15 8 7 7 6 5 4 3 3 3
100 95 70 89 96 100 100 100 98 85 63 61 55 58 55 56 57 58 69 58 56 52 43 48 38 42 25 12 6 5 5 5 4 4 4 4 4 4
89 80 98 100 100 99 82 66 69 62 50 55 61 56 57 58 58 65 57 52 50 47 34 39 22 14 11 6 4 4 5 5 5 5 5 6 5 4
100 100 100 100 81 71 67 61 62 64 69 63 60 58 59 61 59 51 50 46 45 35 15 15 10 9 8 5 6 6 6 5 6 7 6 6 6 5
81 78 69 80 70 64 67 75 76 75 74 60 58 61 62 55 48 45 40 35 17 10 8 9 8 7 9 5 5 5 7 7 7 7 6 6 6 5
84 80 76 77 93 98 99 92 79 70 67 68 68 57 47 44 39 33 17 10 8 8 9 10 7 7 7 8 4 6 7 7 7 6 5 7 8 6
96 94 98 97 97 94 82 70 72 70 66 57 50 45 40 36 21 10 8 7 9 11 10 10 10 10 10 9 8 7 8 6 6 7 6 7 9 8
88 92 99 98 95 90 88 79 60 55 54 49 41 37 24 11 8 7 9 11 11 14 15 13 12 10 9 10 11 9 9 4 10 15 8 9 13 12
100 100 100 100 92 84 67 59 54 46 43 36 24 12 8 7 8 11 13 13 11 10 13 12 10 10 10 10 14 12 9 12 12 15 12 13 17 12
100 100 99 92 76 58 50 46 43 36 23 11 9 6 7 10 14 14 12 10 10 8 7 9 11 10 10 17 15 18 16 16 14 13 12 12 14 11
84 78 71 60 51 49 45 35 26 14 9 7 6 8 10 13 11 11 10 10 10 9 10 10 10 9 9 16 21 20 19 18 17 14 12 11 10 9
61 58 55 49 42 34 26 15 9 8 6 6 9 12 14 13 11 10 11 10 9 10 13 12 12 15 16 17 17 16 13 11 9 10 9 8 8 8
50 45 40 36 25 15 10 8 6 6 8 10 14 16 13 11 10 11 11 9 10 12 13 15 18 20 22 18 14 11 11 9 10 9 11 10 7 8
38 32 26 19 11 9 8 6 6 9 11 16 16 14 12 10 11 11 10 12 14 14 13 16 20 20 15 12 10 11 14 15 15 13 11 12 13 11
28 20 13 10 9 7 6 9 10 12 16 16 15 12 10 11 11 11 12 13 15 16 20 23 20 15 12 10 13 15 15 16 19 18 16 14 13 14
21 13 10 9 8 7 8 11 14 17 15 13 12 10 10 12 12 13 14 14 16 22 23 19 15 14 13 18 20 22 22 25 22 21 18 15 14 14

GFSNE_250_rhum_033.txt.gz
RH
85 84 100 100 100 100 100 100 100 100 100 100 100 100 98 100 99 100 100 100 100 100 94 65 97 77 73 72 62 69 69 62 57 65 68 68 64 65
78 92 100 100 100 100 100 100 100 100 100 97 100 98 84 100 100 100 100 100 85 98 95 90 95 72 64 62 57 51 60 62 56 60 59 58 56 55
61 77 92 100 100 100 100 100 100 100 100 100 100 87 88 100 87 84 97 100 100 100 100 82 81 69 61 55 51 58 52 48 50 49 49 52 58 63
47 56 77 92 100 100 100 100 100 100 100 100 100 100 100 91 84 100 94 100 99 87 84 80 71 79 54 50 59 55 52 50 45 50 51 50 50 51
44 52 54 68 81 90 97 100 100 100 100 100 100 100 83 82 80 95 99 100 100 93 83 71 54 54 54 66 56 52 52 52 53 52 50 50 48 47
40 49 57 63 67 73 78 83 100 100 100 100 100 100 99 100 100 100 100 100 81 74 62 52 54 50 52 50 48 46 46 51 48 48 49 49 46 43
28 39 60 76 85 89 83 74 75 88 100 100 100 100 100 100 100 98 81 63 59 52 55 50 50 51 45 42 42 49 46 45 46 45 42 38 33 25
30 40 69 97 100 99 92 87 84 87 98 100 100 100 100 82 61 63 62 57 55 57 51 56 48 44 43 48 44 44 43 42 39 36 31 25 15 8
31 48 86 100 100 100 99 91 86 79 83 91 86 80 82 77 63 58 64 65 51 46 46 44 40 41 43 43 43 40 38 34 32 25 14 8 6 6
54 80 100 100 98 100 98 94 95 85 81 80 80 73 79 86 78 63 54 51 37 34 37 40 42 45 42 36 35 30 22 17 11 7 6 7 9 10
92 97 97 98 97 94 93 92 92 92 94 90 86 81 74 67 60 49 42 37 36 39 40 40 37 39 37 23 14 9 7 6 7 9 11 12 12 10
73 76 78 82 80 79 81 87 87 89 92 88 76 67 56 44 39 37 37 37 37 36 32 30 27 24 23 8 6 5 7 12 14 12 11 9 8 8
93 91 86 85 82 82 82 85 93 96 97 84 72 59 52 47 41 37 34 32 29 27 25 20 13 8 7 7 5 7 11 9 9 8 8 8 8 9
93 99 100 100 100 100 100 94 84 73 66 58 52 46 41 37 34 33 28 22 14 10 9 9 8 6 6 8 10 9 9 8 8 8 7 8 10 11
84 84 82 81 79 76 73 69 60 56 52 47 41 35 28 24 20 13 9 8 8 7 6 7 10 11 11 11 10 8 9 5 8 9 8 9 10 11
84 78 73 69 64 62 59 56 53 45 35 29 26 24 20 13 9 8 7 7 6 7 10 15 16 15 11 8 9 9 7 8 8 8 9 8 14 15
83 78 75 71 65 58 53 50 40 35 34 31 24 11 8 8 7 6 7 8 9 12 14 16 14 12 9 8 11 11 13 11 12 13 13 12 12 11
86 78 73 68 61 53 49 42 44 40 31 18 10 8 7 7 6 8 10 12 14 13 11 10 10 10 9 9 16 13 13 14 17 18 15 13 12 12
84 78 71 64 58 55 50 46 42 31 16 10 9 8 7 7 10 11 14 15 13 12 10 11 12 11 11 12 15 16 16 19 16 14 14 16 16 14
90 80 69 62 57 55 52 46 30 15 10 9 8 7 9 12 13 14 13 13 12 10 9 12 13 13 13 12 18 20 18 15 12 13 23 23 27 28
88 76 65 58 56 54 50 32 15 10 9 8 8 10 14 15 14 11 11 11 11 10 10 13 14 13 16 20 21 17 19 24 34 34 32 34 26 41
83 69 59 55 58 53 36 16 10 9 9 8 10 14 15 13 11 9 10 9 9 11 13 12 13 18 21 17 16 21 23 40 48 60 71 73 56 39
76 63 55 59 58 44 18 11 10 11 12 12 15 15 14 11 9 8 8 9 12 13 12 14 20 20 16 19 24 33 49 48 56 59 61 60 58 53

GFSNE_250_rhum_036.txt.gz
RH
22 24 27 39 51 71 84 100 100 100 100 100 100 100 100 100 100 100 100 99 100 95 88 73 100 94 75 86 85 96 78 86 98 77 77 88 84 76
27 26 26 31 40 45 55 90 100 100 98 99 100 100 100 100 100 99 100 100 100 100 78 76 79 90 99 81 77 89 92 82 76 92 92 86 83 71
20 27 26 26 31 39 48 61 93 100 100 100 100 100 100 100 100 100 100 100 100 99 96 89 89 95 100 100 96 82 100 96 82 79 85 58 68 64
11 12 17 25 26 36 45 60 79 98 96 100 100 100 100 100 100 100 100 97 100 86 92 100 100 97 84 75 82 77 93 80 78 56 57 66 71 66
8 10 15 22 28 35 47 58 69 83 88 100 100 100 100 100 95 100 100 100 100 100 100 100 99 91 82 98 82 70 80 56 60 62 57 55 49 47
9 11 13 19 29 42 60 100 71 84 88 99 93 100 100 100 100 100 100 100 100 100 89 84 94 100 100 83 54 54 59 65 66 56 47 44 43 43
8 12 13 20 29 40 56 66 70 95 99 96 93 99 100 100 98 88 90 100 100 100 100 100 100 76 61 55 56 58 45 39 40 41 45 45 45 46
8 13 19 27 36 42 47 58 78 97 100 100 100 100 96 99 100 100 100 91 81 72 82 65 67 53 57 44 35 39 41 44 46 47 46 46 44 41
18 20 28 37 44 55 71 88 96 100 100 100 100 100 100 99 92 82 87 79 72 70 68 65 62 46 39 40 41 42 39 39 38 37 36 35 32 29
37 44 56 66 74 85 93 99 100 99 100 100 100 100 100 99 100 100 99 89 74 58 49 50 45 45 43 37 34 31 28 26 25 24 23 22 19 14
66 75 86 87 91 97 100 100 100 100 100 100 100 95 90 84 78 71 64 56 52 47 44 42 35 33 30 23 18 17 16 13 12 10 9 8 7 6
60 61 63 63 65 67 68 69 68 69 68 65 61 58 57 54 54 54 48 46 42 38 33 34 28 26 25 13 9 9 8 8 8 7 6 6 7 9
73 74 77 79 80 78 76 74 73 70 70 70 70 71 70 68 64 59 53 46 38 32 28 25 18 14 10 9 6 6 6 5 7 9 11 12 11 10
82 85 86 86 86 86 82 78 75 75 74 72 70 67 60 53 46 37 31 30 27 18 11 8 8 8 7 6 5 4 6 9 13 12 10 10 10 11
85 91 93 94 93 89 82 75 71 64 65 63 55 47 40 37 34 32 24 14 9 8 7 7 7 7 7 7 8 8 11 8 9 9 10 9 10 12
90 85 81 80 78 77 73 67 64 60 60 52 43 41 39 31 17 11 9 8 7 7 6 8 11 12 11 12 12 10 8 10 7 10 11 13 14 15
85 88 87 83 80 78 72 68 60 59 51 44 40 37 23 12 9 8 8 7 6 7 7 10 16 17 13 10 9 9 12 9 11 12 12 12 14 15
88 88 89 84 80 77 68 61 57 49 44 40 35 19 12 9 8 7 7 8 11 12 13 13 13 12 9 8 11 13 12 13 14 15 15 15 16 17
88 88 90 88 82 74 64 58 54 48 42 33 16 9 8 9 8 8 11 14 15 15 12 10 10 11 9 8 13 17 13 15 18 17 17 18 13 16
89 88 86 82 72 66 58 55 50 44 32 14 9 9 12 13 13 14 14 14 13 11 8 8 10 10 10 14 12 13 18 21 18 19 23 28 29 34
88 90 83 74 67 59 57 53 46 30 12 10 11 13 14 14 14 13 12 10 10 9 7 7 10 12 13 12 12 17 19 17 19 22 34 39 40 46
88 86 75 71 61 56 61 53 35 13 11 13 13 13 13 14 12 10 9 8 7 8 10 11 13 12 11 14 20 18 19 30 42 57 68 71 56 42
89 82 79 63 55 63 60 42 17 12 14 12 12 11 10 10 9 8 7 7 10 11 12 12 11 13 18 18 17 22 40 55 64 62 67 72 69 59

GFSNE_250_rhum_039.txt.gz
RH
28 25 27 33 38 40 40 40 41 46 50 47 61 100 100 100 100 100 100 100 100 100 100 100 100 100 100 100 88 100 100 98 69 64 68 83 94 100
30 29 25 24 25 26 27 28 33 41 46 54 55 65 100 100 100 100 100 99 100 94 100 100 100 100 100 100 100 100 84 72 79 94 100 93 100 100
24 21 16 13 14 14 18 23 28 38 45 56 62 71 99 100 100 100 100 100 100 100 100 100 100 98 100 100 100 97 93 92 100 90 98 100 90 85
13 12 9 6 6 8 14 14 26 30 38 53 64 73 96 99 100 100 100 100 100 100 100 100 100 100 98 93 100 100 99 100 97 98 99 89 88 71
13 12 7 5 4 6 9 13 19 26 44 63 88 92 100 100 100 98 98 95 100 100 100 100 91 94 81 100 100 100 96 98 99 84 90 87 77 78
19 14 9 6 5 7 11 14 19 29 47 82 86 93 100 100 100 100 100 100 100 100 100 100 97 100 100 100 100 100 100 100 92 75 69 72 76 71
27 19 16 10 10 13 14 18 24 39 68 86 92 95 98 100 100 100 100 100 100 100 100 100 100 100 100 100 90 91 78 64 59 62 66 62 59 56
41 37 28 26 15 18 24 31 43 63 72 83 84 76 80 95 99 100 100 100 100 100 100 100 100 90 75 63 60 60 59 56 52 52 53 52 48 46
53 48 44 39 45 48 47 57 70 78 97 98 98 100 100 100 99 94 98 100 98 93 86 75 76 72 65 55 54 53 48 44 44 44 43 41 40 37
59 60 58 55 53 54 55 60 64 67 72 76 82 85 75 70 72 74 73 69 66 65 68 68 63 60 54 50 46 41 39 41 41 37 32 28 25 23
50 50 53 58 65 64 62 67 71 72 71 70 72 76 81 85 84 81 75 70 67 65 65 66 56 50 46 38 34 29 27 23 19 18 16 15 14 10
58 62 66 69 72 77 84 86 87 86 88 89 89 90 90 91 88 86 86 84 80 69 61 60 49 44 42 31 23 21 20 16 12 9 8 8 7 7
72 74 81 83 82 80 80 81 83 84 87 87 88 87 83 80 78 72 67 61 54 48 42 38 34 33 31 24 13 9 7 7 8 8 8 7 6 7
74 74 75 78 78 76 76 76 76 76 73 71 70 67 64 59 54 48 43 40 38 36 34 30 21 13 10 9 8 6 6 6 7 10 11 11 13 16
83 86 83 78 75 74 73 72 73 71 71 67 64 61 57 48 41 39 40 38 31 22 13 9 9 8 8 8 7 5 6 6 11 17 15 12 12 12
89 88 87 81 77 75 76 77 77 72 68 67 62 55 45 40 40 36 25 15 10 8 8 8 8 8 8 8 8 8 9 14 10 10 9 9 11 11
85 86 87 81 76 75 74 72 68 64 64 59 52 43 40 34 19 11 10 9 9 9 8 7 8 13 16 12 10 12 11 11 11 7 10 11 12 13
96 92 86 81 77 74 71 71 65 66 60 55 44 39 23 12 10 10 11 12 13 12 10 10 12 16 17 12 10 10 10 12 9 11 14 12 15 18
91 91 90 82 78 76 71 65 66 66 60 50 43 26 12 12 12 12 12 12 13 13 11 11 12 12 11 9 6 9 12 9 12 14 13 15 20 21
91 87 81 74 71 72 64 64 62 64 61 46 31 14 13 12 11 11 10 10 12 11 9 8 9 9 8 7 6 10 12 12 12 13 18 20 20 24
80 75 72 72 68 64 61 60 60 63 55 36 20 15 13 12 10 10 10 9 8 8 7 6 8 9 8 10 11 13 12 13 17 19 19 20 24 32
76 73 75 73 68 63 59 60 58 64 49 30 17 16 14 13 11 9 8 7 7 8 8 8 10 11 12 12 12 13 18 20 18 19 31 45 51 47
78 82 79 78 74 62 61 57 61 60 44 24 16 15 15 12 10 9 9 10 10 10 11 12 13 12 12 12 18 19 16 15 20 28 42 49 52 53

GFSNE_250_rhum_042.txt.gz
RH
45 34 29 32 31 29 25 23 19 18 19 25 34 36 53 61 74 67 79 100 100 100 99 100 100 84 100 100 100 100 88 88 100 100 100 100 100 81
31 30 37 38 32 27 18 14 12 11 12 14 21 30 39 54 59 60 77 100 100 100 100 100 100 100 100 100 87 100 100 100 100 100 100 99 100 85
37 39 42 36 25 19 14 11 8 6 6 8 12 23 34 46 54 56 73 99 100 100 100 100 100 100 100 100 100 100 100 100 100 100 100 100 99 100
42 42 39 30 23 19 16 11 7 5 5 7 9 14 30 56 75 63 74 78 100 100 100 100 100 100 100 100 100 100 100 100 100 100 100 100 100 82
44 38 35 35 34 27 21 14 8 8 10 11 11 19 35 50 93 82 85 95 100 100 100 100 100 100 100 100 100 100 100 100 100 85 100 100 100 100
38 34 36 42 41 37 32 24 15 13 14 18 18 24 48 61 68 87 94 100 97 100 100 100 100 100 100 100 100 100 100 100 100 100 100 100 99 90
37 38 42 44 46 45 39 32 30 24 27 25 35 36 42 51 68 82 79 85 95 98 100 100 100 98 98 98 99 100 100 100 97 100 100 84 80 82
39 47 50 50 50 46 42 44 45 42 42 46 49 61 79 80 90 89 79 84 88 91 81 88 81 84 86 87 85 73 73 73 80 81 77 76 80 84
47 51 57 60 56 52 48 47 48 54 63 67 69 67 64 65 66 71 80 81 89 97 100 100 100 100 100 99 89 89 87 92 83 74 70 76 78 68
52 61 66 58 54 56 59 60 62 65 68 68 72 77 82 87 86 85 86 85 84 85 86 77 75 71 68 66 64 63 59 58 57 53 48 45 45 45
66 64 61 65 70 71 68 67 71 75 77 82 86 87 87 90 92 94 95 92 89 88 88 86 72 66 62 55 52 50 49 47 44 42 38 37 34 29
67 74 80 79 79 78 72 66 62 67 73 77 76 76 77 78 78 79 81 81 79 76 75 77 69 64 57 49 46 42 39 33 32 32 32 32 28 20
76 84 94 92 85 80 71 63 60 59 62 64 66 66 65 63 64 63 62 59 52 46 43 44 43 42 43 37 32 31 30 27 26 19 13 10 9 8
91 93 97 91 86 88 84 75 69 67 69 71 68 68 64 60 62 61 51 42 39 36 35 35 35 32 30 26 20 12 8 7 7 7 8 9 9 8
100 100 96 94 92 95 84 73 74 75 71 68 66 67 62 59 59 53 45 42 38 28 17 12 11 11 10 10 10 8 6 5 5 6 8 12 12 14
93 98 100 100 97 92 83 81 78 70 63 62 62 59 57 56 53 47 47 33 14 11 11 11 12 12 14 14 14 10 7 7 6 10 15 16 17 16
92 96 96 92 92 86 78 74 70 69 65 67 63 60 61 56 48 47 30 14 13 11 10 11 13 14 16 16 14 10 10 9 11 11 11 11 10 11
84 87 90 86 81 75 72 75 72 70 70 59 57 59 62 49 46 32 14 14 12 11 10 10 10 12 14 12 10 9 7 8 10 9 9 10 8 12
80 79 75 74 76 79 81 75 75 73 62 53 56 62 56 47 40 16 14 12 12 12 10 9 9 9 9 9 8 7 8 11 8 6 8 10 10 14
79 80 82 85 86 90 82 80 76 73 59 56 62 59 48 45 20 14 13 12 11 10 9 9 10 10 10 10 8 8 17 14 10 11 14 12 12 14
82 82 86 92 90 85 84 82 82 63 57 63 59 48 44 29 18 14 15 11 12 12 10 10 11 11 10 10 10 10 14 10 10 10 11 12 17 19
85 88 94 94 92 90 89 90 64 58 61 55 48 44 33 19 17 16 14 12 13 14 12 13 13 12 12 11 11 11 12 11 12 16 18 18 17 19
89 91 96 100 97 92 91 66 60 62 51 47 48 38 18 18 18 17 14 15 16 16 15 14 14 13 13 14 17 18 19 17 15 15 17 19 24 35

GFSNE_250_rhum_048.txt.gz
RH
70 62 49 36 39 47 48 30 34 30 46 42 35 33 33 32 33 25 14 9 8 12 24 37 60 79 76 96 100 100 100 100 100 84 100 94 100 100
48 38 33 42 56 54 39 34 30 38 46 42 37 35 37 39 36 29 18 11 8 9 22 87 96 64 88 90 100 100 100 100 100 100 100 100 97 95
33 37 43 60 50 57 38 31 36 43 45 40 39 38 36 36 38 36 30 17 13 14 19 34 40 68 82 89 92 100 100 100 100 100 100 100 100 90
46 68 67 59 54 40 34 37 43 44 45 41 40 38 36 38 39 39 39 35 32 32 35 47 61 67 99 100 100 100 100 100 100 95 98 100 100 100
85 53 57 41 35 34 40 43 45 48 46 46 46 37 38 40 38 38 39 43 47 52 74 71 70 77 90 100 100 100 100 100 100 100 100 100 100 100
48 45 38 35 34 45 44 47 49 52 49 50 47 48 47 41 41 41 42 44 47 55 56 55 62 72 88 98 99 100 100 98 91 100 100 100 100 100
31 35 33 36 42 45 49 51 55 57 53 54 56 62 55 46 55 51 49 48 54 64 65 72 83 79 78 75 81 92 98 95 95 91 97 100 100 100
37 34 39 43 42 46 50 58 63 65 61 64 71 69 57 63 66 64 68 68 65 67 64 60 70 70 80 86 90 89 84 80 84 96 99 93 92 96
36 38 45 46 48 52 61 66 68 75 77 80 76 72 69 77 73 69 71 70 66 68 69 65 74 71 68 70 72 79 85 91 91 86 78 74 79 84
40 43 48 54 58 62 66 75 83 86 80 78 82 80 77 78 73 68 67 63 63 72 77 75 73 69 67 68 71 75 69 65 67 72 76 80 80 74
43 50 54 59 62 65 73 81 83 85 87 88 83 76 74 79 72 70 70 69 70 74 75 70 66 64 58 56 56 54 51 51 52 55 56 56 55 57
58 54 52 54 59 64 70 76 84 83 83 76 72 72 72 73 73 72 72 70 73 74 74 70 55 49 43 45 49 48 49 47 47 48 47 44 43 42
64 60 58 57 61 66 69 72 69 66 67 68 70 76 78 76 77 77 74 76 72 69 71 53 42 40 46 49 42 39 44 42 40 30 22 20 19 19
57 59 59 57 58 60 61 62 65 67 72 77 77 74 76 80 79 77 74 69 65 57 46 47 47 45 42 42 42 33 19 15 14 13 14 14 13 13
56 57 61 62 63 64 65 67 70 75 76 76 75 76 82 83 79 70 63 64 52 46 44 43 43 44 46 45 33 13 11 11 11 13 14 14 14 14
64 62 65 68 67 68 70 73 73 74 78 80 82 82 86 85 75 67 61 54 48 40 36 36 42 50 47 21 17 14 10 10 10 11 13 12 11 10
69 68 68 70 69 68 67 71 78 82 83 87 90 90 86 81 71 63 56 50 46 39 33 40 51 45 24 17 15 12 10 10 12 10 9 10 8 7
72 73 72 75 76 76 71 76 84 83 90 94 89 85 82 73 57 47 47 49 48 45 44 36 24 22 21 17 14 11 11 14 12 11 9 9 8 7
84 82 80 81 82 84 88 85 80 88 93 90 88 84 74 56 49 46 47 48 50 50 32 17 18 20 18 15 10 13 19 17 13 8 9 11 11 9
83 84 85 86 89 92 92 85 88 88 88 88 78 68 55 49 50 51 48 50 52 29 17 16 17 17 18 17 13 14 19 16 13 12 14 12 10 9
75 79 79 83 87 87 86 88 82 85 83 74 61 50 48 52 56 54 50 48 28 20 18 15 18 18 17 16 16 15 15 15 13 14 16 14 14 14
76 77 80 81 81 85 90 83 87 80 66 51 44 42 36 37 50 50 45 26 19 20 20 19 20 21 23 24 24 26 23 25 22 17 16 13 11 11
83 83 80 75 82 88 86 87 77 56 44 40 34 27 28 35 42 43 26 20 21 22 22 28 37 42 45 42 38 35 39 39 37 34 31 28 23 20

GFSNE_250_rhum_051.txt.gz
RH
96 91 79 61 42 32 27 25 29 46 45 27 32 28 39 41 40 33 35 36 31 24 24 20 9 11 22 52 96 97 100 100 100 99 84 100 100 100
82 64 48 36 29 27 27 28 38 36 26 31 32 42 46 44 39 40 36 38 37 26 24 22 16 16 44 59 70 69 81 100 100 100 100 100 100 100
49 36 29 26 28 32 34 35 30 24 30 30 42 47 50 45 43 42 42 43 40 29 26 25 27 38 52 56 62 68 84 100 99 93 100 100 100 100
29 32 28 28 32 36 30 29 28 29 30 39 45 49 49 49 52 53 53 53 43 37 38 33 31 38 48 60 76 85 100 98 100 95 94 100 100 100
37 29 34 34 33 27 22 25 32 30 38 40 44 48 52 59 60 59 53 50 54 50 43 52 53 52 51 60 63 68 91 100 98 99 90 95 100 100
45 50 45 41 29 23 27 30 33 40 44 45 45 50 58 63 68 63 58 58 56 63 54 54 58 57 64 71 71 75 68 72 87 95 95 92 97 100
62 53 46 34 30 27 29 34 41 48 51 48 50 59 67 72 74 70 68 68 66 69 60 63 61 60 63 64 63 64 65 64 74 75 85 89 90 93
62 52 46 34 39 36 38 43 48 49 52 58 62 68 74 81 72 69 73 72 67 64 65 69 70 72 68 71 72 70 73 72 68 66 80 80 87 95
62 60 43 43 49 49 48 49 50 53 57 58 66 81 77 66 63 80 79 72 69 69 70 68 72 76 77 75 75 74 74 74 72 70 71 70 70 76
79 52 52 58 58 57 57 56 56 56 59 65 65 66 68 72 76 74 71 70 71 71 68 68 70 69 68 66 65 62 56 54 51 56 55 50 52 58
73 59 60 69 63 58 54 53 54 54 54 56 59 63 66 71 70 68 73 73 71 71 72 69 66 66 65 59 55 53 48 47 49 48 46 46 44 45
65 62 64 74 66 55 51 55 58 58 61 67 69 68 67 69 70 69 71 73 71 71 73 73 70 61 50 48 46 46 44 43 45 42 38 41 44 46
69 70 73 76 68 60 58 58 60 63 65 67 71 74 74 71 70 72 73 71 70 75 81 77 55 48 48 43 34 34 32 32 35 37 41 43 42 40
75 79 79 80 74 70 65 64 65 66 66 65 66 70 69 68 70 73 74 76 78 73 64 56 49 42 36 38 36 34 33 36 40 35 27 20 18 17
87 87 85 94 89 79 75 72 72 75 75 74 72 73 73 73 72 72 76 79 73 59 50 46 46 45 42 44 48 34 21 16 14 16 21 21 18 16
88 90 86 83 85 90 85 79 80 80 84 86 80 80 80 76 74 77 78 72 52 42 43 46 47 47 46 41 28 16 15 16 13 15 17 15 15 12
90 91 95 88 82 85 86 85 83 84 82 79 79 82 78 74 75 77 66 47 40 39 40 42 45 55 48 25 17 14 13 14 14 12 13 14 11 10
91 88 98 89 85 79 79 79 81 76 70 69 74 76 72 73 74 56 43 40 35 29 31 35 40 36 24 18 15 15 18 17 15 12 11 13 11 12
93 84 85 86 86 84 79 74 69 69 66 69 66 66 71 73 57 38 36 27 24 29 36 38 29 22 23 18 13 19 19 16 13 12 14 15 13 11
90 87 82 87 90 92 79 66 66 68 70 65 64 69 72 59 36 33 24 22 24 32 36 22 19 23 22 20 19 25 30 24 23 20 20 17 14 12
92 89 90 95 98 87 70 64 67 70 64 68 72 71 58 39 31 22 21 22 27 37 27 16 22 25 30 37 44 45 47 46 42 38 36 32 27 24
88 86 94 97 95 81 72 75 75 71 78 77 73 53 38 28 22 22 22 24 31 27 19 19 25 40 54 50 47 46 47 56 57 53 46 42 41 41
90 91 96 96 85 81 89 80 82 83 79 77 50 37 28 22 22 21 25 31 28 18 18 21 40 60 58 58 62 66 66 56 50 53 86 71 50 43

GFSNE_250_rhum_054.txt.gz
RH
100 100 100 94 87 76 58 48 38 30 27 23 23 17 18 20 28 37 39 42 41 41 45 56 28 21 16 16 14 12 17 31 50 69 90 100 100 97
100 99 92 79 60 49 39 35 35 28 24 22 17 18 22 25 33 41 39 46 46 48 48 48 45 31 23 22 18 22 31 40 57 68 100 100 98 98
87 76 58 51 48 39 40 34 32 29 23 19 19 25 28 33 40 43 44 49 51 57 64 53 50 39 33 34 34 34 43 63 59 63 100 88 95 93
57 41 49 41 42 63 47 49 36 30 22 18 25 30 33 40 45 47 50 52 60 69 64 56 49 49 51 47 48 47 51 64 90 89 86 79 96 79
48 41 50 49 62 77 58 58 43 28 28 30 32 35 42 47 52 54 57 63 67 60 59 58 51 49 61 65 61 58 59 60 78 88 94 95 100 93
55 56 51 68 92 82 72 53 39 33 44 42 38 43 51 57 56 58 66 68 63 68 57 46 54 62 64 67 71 74 76 71 64 67 74 82 86 100
82 100 77 81 71 83 78 44 39 42 49 51 50 50 52 55 60 68 67 67 73 61 58 59 61 64 66 67 68 69 71 72 78 77 67 62 66 72
99 100 77 84 74 88 66 44 41 52 53 52 51 52 53 56 61 63 68 60 64 57 60 65 65 66 64 65 68 71 75 76 72 69 70 70 67 64
100 78 96 69 76 77 65 45 52 59 55 48 48 51 54 57 58 58 61 63 62 62 61 65 67 65 68 72 72 72 72 72 70 66 64 61 61 66
77 97 89 94 81 79 66 58 57 64 59 51 51 54 58 60 62 65 68 69 68 66 68 67 69 72 75 80 79 75 66 56 51 47 47 50 53 58
100 98 100 82 89 77 69 64 69 69 66 60 61 62 66 67 68 72 74 71 71 74 72 70 72 78 86 83 73 59 51 45 44 44 43 42 44 46
100 100 93 90 76 82 68 70 76 80 78 74 74 70 70 70 71 73 74 75 76 76 74 74 78 86 82 65 53 48 45 43 41 39 38 39 37 36
100 90 97 87 83 72 76 79 82 84 94 94 89 84 80 79 80 80 76 76 77 76 75 79 81 85 66 47 42 46 47 44 44 44 47 49 50 51
100 99 100 100 85 74 75 85 83 87 86 88 90 89 87 80 73 72 71 69 66 70 74 77 78 64 45 42 38 36 38 40 44 44 40 29 26 24
100 100 100 91 90 74 78 82 84 82 85 82 80 74 70 68 65 67 69 65 63 67 71 71 58 41 37 28 29 29 33 31 22 21 22 21 18 16
94 100 99 100 87 81 84 84 84 82 78 78 77 74 68 65 66 69 69 64 63 66 67 47 36 30 24 25 30 31 23 18 19 18 17 16 15 15
100 100 99 94 76 79 82 78 90 91 80 73 74 78 75 68 65 66 63 64 66 63 38 32 25 24 25 27 32 21 19 20 18 17 19 18 16 17
100 94 86 83 83 88 85 87 93 85 78 76 82 83 73 67 60 60 66 68 63 38 29 22 22 24 27 34 25 20 24 22 22 30 32 28 21 22
95 89 89 89 85 81 84 90 89 86 78 86 91 86 74 65 63 68 69 60 38 30 21 21 22 27 34 32 16 24 36 44 48 51 48 46 39 40
91 84 84 85 80 83 91 86 84 82 90 92 84 78 76 70 72 74 62 36 31 22 21 21 24 30 31 20 19 37 58 52 56 56 56 52 42 41
85 87 84 85 89 90 87 86 89 93 94 85 81 80 78 74 76 62 35 31 22 22 21 22 25 24 18 19 24 53 65 58 63 62 70 56 61 65
86 85 87 86 83 88 94 94 99 94 89 83 82 78 76 78 59 39 33 24 22 21 22 25 21 18 18 25 44 54 63 74 76 65 68 76 52 39
95 92 88 94 95 92 97 98 96 92 89 86 78 76 71 51 39 33 23 22 21 21 26 24 16 20 28 52 50 50 63 68 65 57 54 67 62 60

GFSNE_250_rhum_057.txt.gz
RH
100 100 100 100 100 100 97 86 77 67 50 42 38 30 26 27 22 20 23 27 32 40 44 46 48 50 47 39 30 28 23 21 18 13 17 26 67 77
100 100 100 100 100 94 88 77 66 47 40 36 42 40 30 29 22 23 28 34 41 46 49 53 55 53 48 40 34 34 36 34 31 25 24 55 98 87
100 100 100 100 100 93 74 58 47 39 38 37 48 40 36 27 28 32 37 41 47 52 53 54 51 53 51 50 49 41 46 50 47 40 45 52 97 100
100 100 100 98 83 62 53 43 46 65 61 53 61 41 39 31 37 44 45 46 49 56 55 52 58 53 55 57 57 56 52 55 58 54 57 72 73 79
98 98 97 70 49 40 38 48 68 57 69 67 58 46 36 36 46 49 50 50 52 53 55 57 56 58 57 56 55 58 60 59 58 59 61 74 94 80
77 65 53 46 38 49 83 69 84 77 80 63 56 38 39 49 53 48 46 49 47 48 52 56 58 56 56 58 57 58 60 62 62 64 68 70 69 73
54 54 37 46 60 63 69 92 84 98 80 73 61 45 43 59 57 50 49 49 50 52 57 60 60 60 58 59 60 64 67 69 72 74 77 76 73 79
42 40 49 55 72 80 87 81 96 89 93 87 62 46 52 60 62 56 53 53 59 58 65 65 64 65 65 66 68 69 70 77 82 85 84 84 85 79
37 41 46 69 87 100 83 86 100 98 91 72 56 54 59 69 68 70 69 64 65 67 67 70 76 76 72 71 73 74 75 80 86 83 74 66 64 65
32 40 61 79 88 96 93 100 94 100 81 62 65 63 69 73 82 83 78 76 75 72 72 75 77 78 72 66 66 69 73 79 82 74 60 53 49 47
38 44 63 99 76 100 99 99 100 84 90 69 67 69 72 73 76 77 80 86 87 82 78 76 74 69 68 65 65 67 73 78 72 56 46 43 44 47
53 64 91 100 100 100 100 100 99 99 86 72 70 73 76 79 72 72 76 75 74 72 69 68 65 64 64 63 64 71 76 67 48 40 40 35 34 39
70 79 92 100 100 100 100 100 100 98 84 77 77 71 75 78 80 78 76 77 75 76 72 67 62 61 63 62 68 72 59 37 33 28 26 28 35 35
74 95 100 100 100 100 100 100 100 85 86 79 82 74 77 76 74 75 75 75 74 76 75 66 61 62 62 72 69 48 32 26 23 23 26 32 38 35
100 100 100 100 100 100 100 100 97 85 79 80 84 77 76 73 70 78 82 78 78 76 69 68 68 67 73 67 43 29 23 21 21 27 40 33 19 20
100 100 100 100 100 100 100 95 94 84 82 86 75 80 77 76 83 89 79 80 74 74 73 73 71 73 67 38 29 20 20 21 25 32 26 21 25 26
100 100 100 100 100 100 99 89 91 88 89 81 81 78 81 85 88 82 85 82 81 79 77 76 72 63 39 28 21 19 19 24 31 22 23 29 37 44
97 98 100 98 88 78 88 90 87 83 83 80 78 82 88 89 86 87 87 88 84 78 73 70 55 37 30 21 20 18 22 31 26 18 35 46 54 57
100 81 81 97 100 87 96 86 85 85 84 81 85 86 92 95 88 93 94 88 84 76 68 47 32 26 23 21 19 19 23 24 19 25 51 55 63 83
99 92 92 92 89 86 93 90 88 86 88 93 97 98 98 98 97 90 86 80 77 69 44 30 26 22 21 20 22 20 17 20 22 42 55 58 64 75
95 99 98 98 94 92 89 89 94 98 100 100 98 100 99 91 81 80 79 73 57 37 32 25 22 21 19 21 26 17 18 28 41 44 54 78 67 54
96 97 94 91 92 96 94 98 100 99 100 100 100 98 91 87 84 81 66 46 35 31 24 23 21 19 19 26 22 17 22 56 61 48 55 83 69 46
95 97 100 100 100 99 100 100 100 100 100 98 93 93 94 86 78 58 40 36 29 23 24 24 20 19 21 26 19 19 38 61 65 81 79 87 71 63

GFSNE_250_rhum_060.txt.gz
RH
100 100 100 100 100 100 100 100 100 100 100 100 96 76 56 38 34 38 44 33 28 24 29 38 42 43 45 48 52 48 40 39 40 38 32 27 18 12
100 100 100 100 100 100 100 100 100 100 100 97 78 57 39 36 35 44 45 34 28 32 39 45 47 46 47 51 53 52 49 50 49 44 36 36 29 22
100 100 100 100 100 100 100 100 100 100 98 83 56 38 40 44 48 49 46 44 33 40 46 45 47 46 48 50 51 54 53 50 49 47 44 41 46 42
100 100 100 100 100 100 100 100 95 90 71 67 40 39 46 60 65 54 44 46 39 48 48 47 47 48 50 52 54 55 58 56 54 53 54 48 46 60
100 100 100 100 100 100 100 95 86 63 64 40 39 61 66 79 73 57 55 48 44 55 55 54 52 53 53 53 55 59 62 62 62 60 59 62 62 53
99 100 100 97 92 84 78 68 63 58 40 39 51 71 90 88 79 63 59 46 48 63 65 64 60 61 62 62 63 66 66 67 67 69 68 68 71 73
90 79 78 82 92 51 63 65 45 36 36 42 63 96 92 94 88 81 60 51 55 63 69 70 68 69 68 70 74 80 78 71 67 65 67 73 77 83
51 64 62 72 60 57 53 41 43 33 39 66 90 89 100 100 94 73 60 60 65 63 71 78 79 76 76 77 79 79 76 74 69 66 64 67 73 80
49 46 57 59 61 44 35 37 35 39 67 99 96 99 95 100 83 76 67 66 69 67 70 72 74 75 73 69 67 66 66 67 64 63 65 66 72 79
34 46 45 36 35 33 30 30 35 58 98 97 100 100 100 100 86 78 67 64 66 70 76 77 78 74 70 68 68 71 69 60 59 63 64 68 75 78
24 25 25 27 30 34 32 39 71 100 100 100 100 100 100 98 86 76 72 73 67 67 73 73 67 65 69 69 69 70 61 56 58 62 67 72 76 70
24 24 24 26 32 35 48 80 100 100 100 100 97 100 100 88 81 83 80 73 72 72 76 70 69 71 75 72 74 69 62 62 63 67 73 76 58 36
26 30 33 37 42 64 79 100 98 100 100 97 100 99 98 78 86 84 82 79 79 79 73 70 74 79 75 75 70 68 66 69 72 70 67 44 32 26
40 44 49 59 87 100 100 100 100 100 100 100 100 99 82 89 94 88 91 82 81 75 78 80 80 76 79 76 70 67 69 68 66 54 36 29 22 21
49 54 94 100 100 100 100 100 100 100 100 98 100 87 88 89 92 95 84 79 78 80 84 86 80 81 81 78 73 63 62 55 37 33 25 21 20 20
82 100 100 100 100 100 100 97 100 100 99 100 96 92 94 97 92 86 84 80 81 84 86 90 88 84 83 79 68 60 47 32 27 21 21 20 20 24
96 100 100 100 100 100 97 96 97 94 90 91 84 94 93 87 88 87 84 92 86 87 84 83 76 74 76 71 62 39 26 24 21 20 20 22 22 25
100 100 100 99 94 92 94 88 90 88 89 94 93 92 92 94 93 93 96 95 86 91 85 80 79 80 74 52 32 27 21 20 20 20 22 24 19 20
99 100 100 100 93 92 93 86 98 98 91 96 98 95 95 99 99 98 94 87 89 85 83 79 74 53 42 38 31 19 20 18 20 22 24 17 16 26
94 92 88 83 84 92 99 99 96 94 99 99 95 96 100 100 99 94 91 90 86 82 80 64 40 38 35 26 25 21 17 19 22 22 16 15 19 48
100 100 100 100 100 100 100 97 96 95 93 94 98 100 100 98 96 90 88 83 77 74 67 40 37 31 24 23 21 20 17 19 29 20 18 20 47 51
100 99 96 95 94 92 94 98 100 100 98 98 97 100 99 99 92 88 83 73 65 60 42 40 31 24 21 19 19 19 19 20 25 21 21 47 62 52
97 96 98 99 99 99 96 94 95 96 94 96 96 99 98 95 88 82 68 57 51 39 40 32 23 20 19 18 19 19 22 21 21 27 39 57 53 60

GFSNE_250_rhum_063.txt.gz
RH
100 100 100 100 100 100 100 100 100 100 100 100 100 100 100 100 92 75 76 65 36 30 27 30 31 30 29 39 40 41 44 44 46 46 43 40 39 37
100 97 100 100 100 99 100 100 100 98 100 100 100 100 99 92 85 80 60 40 30 32 36 42 39 34 36 43 42 45 49 50 48 46 48 47 45 45
93 83 57 54 64 60 69 78 90 96 100 100 100 100 94 89 77 63 43 33 42 58 52 53 49 40 49 54 52 53 53 56 53 49 47 49 52 50
26 37 32 37 46 42 61 79 100 100 100 100 92 98 80 71 60 47 42 58 62 74 76 65 55 45 59 64 62 58 60 59 60 60 58 59 58 60
27 26 33 35 47 57 68 85 94 94 96 100 92 72 65 65 45 50 53 83 99 92 97 73 57 47 52 65 72 70 66 63 64 68 68 65 64 62
25 31 36 39 42 57 77 72 71 86 77 64 58 71 68 46 39 43 83 98 89 100 94 75 56 54 52 55 60 64 70 76 79 76 76 74 71 70
30 32 34 33 43 49 67 83 69 54 36 43 58 69 64 40 53 65 99 98 100 90 100 82 66 64 62 64 65 62 62 66 68 67 68 69 72 71
32 30 32 31 31 47 48 43 50 43 36 42 63 57 59 47 68 83 100 100 100 94 93 78 70 70 72 70 69 67 67 65 63 62 63 64 67 66
33 30 34 44 54 38 46 35 47 35 37 42 32 42 43 69 85 100 100 97 100 100 93 74 72 73 76 70 68 70 69 64 63 69 68 68 66 62
34 34 35 38 41 45 39 34 30 32 27 31 34 47 68 86 100 100 100 100 94 100 93 78 75 78 76 70 72 73 64 64 75 71 72 72 68 64
40 39 34 33 34 35 32 28 30 28 28 35 49 65 82 100 100 100 100 93 98 98 89 80 83 87 81 74 74 71 70 73 70 71 72 71 71 68
30 30 32 35 36 34 34 33 30 33 41 59 73 94 100 100 100 100 100 98 93 92 91 79 87 87 78 76 73 69 74 74 73 75 76 75 71 66
29 30 35 41 45 44 39 39 41 45 61 87 98 100 100 100 100 100 96 98 97 99 84 91 85 84 76 73 78 80 82 83 78 74 75 72 65 62
32 37 44 48 50 48 47 50 62 77 98 100 100 100 99 100 96 90 92 93 100 90 95 88 85 79 78 86 90 85 79 76 69 67 67 62 56 48
31 37 41 46 56 61 68 73 83 100 100 100 100 100 100 98 92 99 99 100 90 93 89 87 85 85 96 95 85 77 78 72 72 70 58 42 29 25
41 47 48 51 67 79 82 86 100 99 94 100 100 96 99 95 100 95 89 97 91 93 90 91 94 97 94 91 86 79 80 71 52 36 31 28 25 21
53 57 66 80 86 89 89 86 92 98 100 100 100 96 96 100 90 97 98 94 90 87 92 98 97 98 96 94 83 78 70 47 35 31 27 23 20 18
83 89 91 94 96 97 98 100 100 100 100 99 99 98 86 90 95 100 96 96 90 91 92 92 94 92 92 83 74 62 45 35 31 24 23 23 20 16
93 97 100 100 95 94 94 91 94 98 95 90 89 96 95 100 100 100 97 97 96 96 96 94 90 94 90 82 62 44 36 28 22 20 21 20 19 17
99 99 99 99 100 100 98 96 93 90 95 100 100 100 100 100 97 96 97 96 96 96 94 91 89 84 73 64 55 37 27 21 20 20 19 18 18 21
96 95 94 97 96 98 100 100 100 100 100 100 99 96 95 98 94 93 90 88 90 90 81 66 57 53 56 47 44 34 20 18 18 20 19 20 22 19
98 100 100 100 100 100 100 99 100 100 100 100 97 95 93 92 88 78 67 60 60 60 57 51 49 50 42 41 32 22 19 18 19 19 20 25 22 17
99 99 99 100 100 100 99 96 96 90 83 80 74 67 63 63 62 59 54 49 53 50 48 51 48 42 40 29 22 19 19 19 19 21 22 29 20 18

GFSNE_250_rhum_066.txt.gz
RH
100 100 100 100 100 99 100 100 100 100 89 77 60 48 50 57 61 75 74 84 80 72 66 53 36 40 49 51 46 42 44 54 54 50 51 51 48 45
81 79 86 100 99 96 90 96 85 38 29 42 45 49 49 53 56 76 88 93 78 64 61 34 40 46 67 61 59 48 43 54 64 62 56 52 50 48
74 85 91 88 78 70 57 36 29 27 27 41 40 49 50 60 78 85 82 66 52 58 51 42 43 75 78 74 71 57 49 49 64 71 68 60 56 55
80 57 34 31 29 29 29 29 29 31 29 48 46 53 54 45 75 63 58 50 43 60 66 65 63 100 92 86 75 69 61 53 58 64 71 75 69 63
31 29 28 27 29 31 33 32 34 34 42 54 50 43 45 62 60 59 62 57 65 66 52 52 80 100 92 90 90 71 64 62 59 60 64 68 72 74
30 31 31 33 32 32 34 33 34 36 40 40 36 41 44 49 63 59 66 55 68 58 56 68 98 96 93 100 98 76 72 66 64 60 60 63 66 69
34 34 34 35 36 36 36 35 34 37 34 32 34 47 50 56 54 75 68 53 41 65 71 92 100 97 87 90 97 83 79 71 66 65 63 66 66 63
34 34 34 32 34 35 34 36 36 33 45 46 54 63 63 63 55 100 75 51 62 67 100 100 100 99 91 90 92 90 77 69 69 72 67 66 64 63
30 30 29 29 32 34 33 31 39 36 41 60 56 66 83 40 48 56 36 51 69 84 100 100 98 96 96 95 92 90 77 78 75 72 69 67 68 71
22 22 25 28 29 27 30 30 36 37 54 58 42 39 37 36 37 43 57 74 86 100 100 97 92 99 92 94 100 91 85 80 75 75 73 74 73 71
20 21 22 23 24 28 30 36 44 36 42 39 43 42 40 43 51 69 93 87 95 100 100 90 98 93 91 99 95 88 86 80 78 78 82 86 84 79
17 18 20 22 24 25 28 32 33 39 43 45 46 46 51 59 74 99 91 94 100 96 93 97 95 93 100 96 89 83 81 78 84 88 92 85 78 73
20 21 22 23 24 26 30 37 42 41 48 54 57 60 74 81 80 80 85 100 100 98 97 97 92 100 92 89 93 83 80 85 95 94 89 81 77 75
20 21 22 25 26 28 31 36 42 53 56 64 63 72 79 83 83 84 97 97 94 100 100 98 100 99 89 93 88 86 83 94 91 94 91 82 74 70
28 27 27 29 33 36 42 53 63 73 77 86 84 80 74 78 93 97 96 99 100 100 100 100 99 92 94 94 88 83 88 89 89 93 90 79 66 54
40 40 38 38 47 59 68 76 86 89 87 83 88 95 93 100 100 100 100 100 100 100 100 94 94 97 100 95 89 82 86 83 86 91 90 75 52 42
54 60 68 70 72 78 78 79 87 93 94 99 100 100 100 100 100 100 99 98 97 96 99 97 96 99 97 94 88 85 80 86 87 85 73 53 37 34
70 68 76 85 90 91 93 94 92 91 96 98 99 99 100 100 100 100 98 96 92 93 99 100 100 99 98 93 92 89 88 83 66 58 51 43 38 24
86 91 95 97 99 100 100 100 100 100 100 100 100 100 100 100 94 88 93 95 95 99 100 100 100 100 98 95 75 62 58 53 54 50 38 40 28 20
97 99 100 100 100 100 100 100 100 99 99 99 99 98 98 98 96 97 99 98 95 91 91 89 89 82 81 75 59 50 55 55 46 38 38 27 21 18
97 97 98 99 100 100 99 99 100 100 100 100 100 99 99 100 99 95 88 83 82 75 70 68 67 66 67 59 52 49 48 46 40 42 28 21 18 19
96 97 99 99 100 100 100 100 100 100 100 100 100 100 100 98 91 84 77 78 72 62 54 58 59 60 56 50 55 61 48 36 37 26 20 18 20 19
98 98 100 100 100 100 100 100 100 100 100 95 99 99 92 91 84 78 69 60 51 53 48 48 52 49 46 54 60 50 39 36 25 19 16 18 19 28

GFSNE_250_rhum_069.txt.gz
RH
100 100 96 100 94 83 100 98 70 82 86 100 82 35 33 31 31 33 34 39 55 54 55 57 64 62 48 46 46 62 68 71 64 57 52 42 46 50
98 86 89 100 98 78 90 83 68 57 50 41 32 32 32 32 34 33 38 45 57 61 53 64 64 62 53 62 51 76 92 83 72 68 59 48 46 47
91 92 87 81 82 95 91 45 29 29 31 30 33 34 36 36 38 38 38 54 55 60 54 56 60 58 64 60 52 83 100 94 86 77 73 65 52 52
56 53 59 62 65 64 59 31 32 33 35 37 36 37 38 39 39 39 48 55 64 58 59 59 81 77 79 75 71 80 100 93 91 83 84 77 64 54
52 64 98 100 100 42 33 33 35 36 38 37 36 38 39 41 42 43 49 47 54 59 69 75 98 68 85 72 85 98 100 98 83 88 95 81 69 62
100 100 85 56 37 34 34 32 32 32 33 34 35 37 40 39 39 45 45 57 67 68 92 76 75 71 66 76 100 100 100 97 88 92 97 89 71 65
41 38 34 31 31 32 32 30 30 30 31 37 35 36 33 35 39 43 66 70 82 77 76 67 73 60 69 84 100 100 100 91 88 93 93 91 78 72
41 40 37 33 29 28 29 28 28 28 28 30 31 30 34 38 42 48 56 84 72 100 78 42 48 70 83 96 100 100 98 92 95 88 85 84 78 75
30 28 26 24 23 20 18 18 17 19 21 23 28 31 33 33 39 71 82 75 78 55 50 44 56 82 88 100 100 99 99 93 91 86 90 80 76 77
21 19 18 17 16 16 16 17 18 19 21 26 27 29 31 32 47 50 49 62 60 55 59 66 71 80 94 100 100 100 100 96 96 94 83 80 78 78
18 17 18 17 16 17 18 18 20 20 23 26 31 35 36 45 45 55 62 62 60 54 58 78 90 98 100 100 100 100 96 96 91 90 86 83 84 80
17 19 18 17 17 18 18 18 18 21 24 30 34 41 45 45 54 58 62 54 54 65 84 88 97 100 100 100 100 100 100 97 95 92 88 89 87 91
24 24 22 20 20 19 19 20 22 25 29 32 36 39 44 53 57 62 60 58 71 95 95 95 94 100 100 100 100 100 97 96 97 91 89 91 87 91
28 25 24 22 23 24 25 26 27 30 32 34 40 45 56 67 59 57 77 93 99 100 100 100 100 100 97 100 100 100 100 96 91 88 88 90 87 87
40 38 37 31 28 31 33 37 40 44 54 62 69 71 68 80 95 99 100 100 100 100 100 100 99 100 100 100 100 96 97 94 84 87 94 91 88 86
59 55 52 45 44 46 47 57 58 63 76 80 83 91 100 100 100 100 100 100 100 100 97 100 100 98 100 98 93 90 93 85 87 94 92 86 82 80
73 68 68 65 61 56 61 67 80 84 87 91 96 98 98 100 100 100 100 100 100 100 99 100 100 100 98 96 94 88 84 83 87 91 93 74 58 56
85 80 78 77 80 81 85 89 92 98 99 99 99 100 100 100 100 100 100 100 100 100 100 100 98 96 95 93 95 91 87 89 82 70 64 58 49 44
92 92 87 85 88 90 94 98 100 100 99 98 99 100 100 100 100 99 100 100 99 95 99 99 98 100 99 93 83 76 71 66 62 57 56 60 65 46
96 99 99 100 100 100 100 100 100 100 100 100 100 100 100 99 100 99 97 99 98 93 90 95 93 92 87 88 76 64 60 63 59 56 52 58 56 54
92 99 98 98 98 98 97 99 99 97 98 97 98 99 100 100 100 100 100 95 93 92 90 86 85 81 73 63 61 57 55 53 49 50 48 49 46 43
94 100 100 100 100 99 99 100 98 96 98 97 96 99 100 100 100 94 96 98 96 92 83 74 66 59 52 48 47 44 40 41 46 51 48 45 42 43
94 100 100 100 100 100 100 97 99 96 97 97 95 100 100 97 96 98 98 97 87 74 62 47 38 35 35 34 35 39 41 40 43 44 37 39 37 29

GFSNE_250_rhum_072.txt.gz
RH
100 100 97 100 100 100 100 99 89 100 96 77 70 60 83 84 82 46 36 41 41 42 43 43 45 48 71 69 82 70 62 53 62 53 72 70 72 56
100 100 100 100 100 100 100 100 100 94 65 68 71 71 60 58 34 34 39 39 39 39 41 43 47 55 67 74 76 86 99 92 75 65 80 81 81 70
100 100 100 100 100 100 99 100 89 60 60 60 46 44 62 39 39 40 40 40 37 38 44 44 47 51 65 71 82 100 100 91 80 85 98 92 88 79
100 100 100 100 100 100 88 40 44 43 41 39 49 48 41 40 41 37 36 36 37 41 42 47 52 56 60 76 99 99 96 80 81 83 100 98 95 89
100 100 100 96 54 46 34 35 49 51 54 43 35 36 36 34 34 35 34 37 38 45 44 48 48 51 72 92 100 100 96 98 86 100 100 100 90 88
99 89 51 31 33 35 35 38 38 36 38 36 34 34 33 33 33 30 28 32 35 34 37 44 56 70 69 92 100 98 74 74 94 96 98 98 88 90
42 38 36 38 40 34 35 33 30 28 31 34 32 30 30 29 28 26 26 28 26 33 38 45 66 66 77 92 97 67 78 84 97 100 100 87 94 87
46 43 38 38 33 30 31 34 32 30 29 25 22 23 20 19 20 20 21 25 30 35 41 44 48 63 60 66 66 63 84 95 100 100 100 89 87 96
41 38 33 31 32 30 29 27 24 21 19 18 18 18 18 18 20 24 24 24 33 38 39 43 50 56 62 66 69 75 88 86 97 100 100 92 99 99
28 28 29 28 25 21 20 19 19 19 19 18 17 17 17 20 22 24 29 32 36 40 48 50 52 57 66 67 73 90 93 100 100 100 100 98 100 97
24 22 21 21 20 21 20 19 19 18 17 18 19 20 21 25 29 36 38 43 45 51 55 55 63 69 73 77 89 90 96 100 100 100 100 100 97 90
19 18 20 18 18 22 21 22 22 23 24 24 24 24 27 30 33 42 46 46 58 58 54 68 78 85 85 91 100 100 100 100 100 100 93 100 92 95
26 26 27 26 30 31 30 28 26 25 24 24 25 27 30 32 38 43 46 54 62 62 75 95 100 100 100 100 100 100 99 100 100 96 89 94 98 94
35 35 36 34 33 32 30 28 28 28 27 30 33 37 38 45 53 59 58 77 100 100 100 100 97 98 100 100 100 100 100 100 96 93 100 98 91 93
34 36 32 37 40 39 44 37 35 35 39 39 42 48 53 66 83 98 100 100 100 100 100 100 100 99 97 100 100 97 100 98 95 100 100 96 91 90
47 44 45 48 52 57 59 60 54 54 59 68 75 77 82 92 99 100 100 100 99 100 100 100 99 95 90 94 93 94 100 100 100 100 93 91 90 89
52 52 56 62 70 72 70 80 83 78 73 79 87 86 89 95 98 98 100 100 99 97 96 95 93 94 95 98 98 95 96 93 94 98 96 87 83 82
80 76 74 79 87 87 85 88 87 89 89 90 95 96 96 99 100 99 98 99 99 99 97 96 94 96 100 98 93 90 86 85 89 91 89 87 80 75
90 85 90 95 93 94 93 94 90 86 83 83 83 88 95 98 96 97 99 98 100 100 100 100 100 94 95 94 92 90 82 76 74 72 72 74 70 57
96 95 98 99 100 100 100 100 96 94 93 92 92 97 100 100 99 100 100 100 98 99 100 100 100 98 96 98 92 81 72 60 54 48 51 58 62 56
99 99 100 100 100 100 100 100 100 100 100 100 100 100 99 98 96 95 97 100 100 100 100 97 100 98 93 87 79 65 46 36 34 34 38 45 46 47
99 96 99 100 100 100 100 100 96 97 97 94 94 94 100 99 97 100 100 100 100 99 98 99 100 99 86 70 46 28 24 24 26 31 34 38 40 44
95 93 97 98 93 96 100 100 98 97 97 91 95 100 100 100 100 100 100 100 100 100 100 100 97 85 76 58 42 31 25 25 31 32 31 37 43 47

GFSNE_250_rhum_075.txt.gz
RH
100 100 100 99 90 99 99 80 71 82 97 100 100 100 100 100 100 96 79 48 38 41 43 44 48 42 41 42 45 47 52 60 73 65 75 72 72 74
100 100 100 100 93 100 100 100 92 99 86 100 100 100 100 100 98 76 36 38 38 42 51 44 41 42 41 44 41 52 53 70 72 72 84 71 76 74
100 98 99 100 93 99 99 100 89 100 100 100 100 99 100 86 50 38 41 37 36 38 40 42 42 42 40 45 43 51 63 70 69 82 77 83 75 84
100 100 99 100 100 100 100 100 100 100 100 100 100 92 64 44 44 42 40 39 36 37 36 37 37 37 36 39 47 58 64 79 70 89 92 93 71 85
84 100 100 100 100 100 99 100 100 100 86 81 46 46 41 45 37 34 36 34 32 34 33 30 34 32 34 36 41 48 48 57 90 94 91 98 86 86
100 100 100 100 95 80 93 92 74 82 58 46 40 39 31 31 28 31 29 27 29 29 26 27 28 27 31 32 40 54 56 64 77 83 89 84 88 91
88 91 78 65 91 100 89 90 82 46 41 41 34 27 27 27 24 20 21 21 23 24 23 24 25 27 29 36 41 50 51 60 72 79 81 83 94 100
100 92 81 79 91 83 55 47 48 43 36 28 29 26 21 19 17 18 19 19 20 22 22 26 28 30 36 37 40 46 59 60 74 78 84 92 100 100
80 77 58 53 55 47 42 50 34 28 28 23 20 18 16 18 19 19 20 22 24 30 29 32 37 41 45 50 47 55 63 73 82 86 92 99 96 100
50 42 40 40 39 36 30 29 26 20 20 18 17 18 19 20 22 24 26 28 30 32 33 36 44 50 54 57 62 70 79 85 92 98 100 99 100 100
27 27 28 29 28 27 24 22 20 18 17 19 22 24 27 27 28 28 28 30 33 34 39 46 53 57 65 75 83 85 96 93 100 100 100 100 100 100
25 24 24 24 22 20 18 18 20 23 26 28 28 28 26 25 26 28 30 33 38 44 48 53 68 65 96 97 100 100 100 100 100 100 100 100 100 100
18 19 19 18 19 21 22 27 31 32 33 29 27 26 28 30 32 36 38 40 48 57 70 88 93 96 100 100 100 100 100 100 100 100 100 100 100 98
20 24 24 28 29 30 30 32 37 33 32 34 36 32 32 34 38 43 48 62 77 86 99 99 98 100 100 100 100 100 100 100 100 100 100 100 96 90
32 34 34 34 31 32 34 35 43 48 50 46 44 41 47 48 50 55 70 80 91 100 100 98 95 99 100 99 95 97 100 100 99 94 93 94 94 91
36 39 38 38 40 40 45 50 56 68 71 62 59 61 60 60 62 68 80 88 90 95 98 97 94 90 92 92 92 96 98 97 97 98 96 94 90 86
39 42 44 52 58 57 60 64 72 87 89 80 76 77 82 77 82 84 84 87 92 95 95 94 98 100 98 100 97 96 94 93 97 98 96 92 89 87
54 59 68 86 88 84 84 90 91 94 96 97 95 93 88 89 93 97 96 96 99 100 100 98 94 95 94 91 91 91 99 100 100 100 100 99 90 81
92 79 89 94 94 96 97 99 97 95 94 96 98 98 100 100 98 100 100 100 96 90 88 90 92 99 100 99 100 95 98 95 99 99 92 95 82 57
84 78 92 92 99 100 100 99 99 97 96 97 95 92 86 85 86 90 94 98 98 99 100 100 100 100 96 100 98 98 98 98 92 86 76 68 48 26
82 79 75 91 99 100 100 100 98 98 98 97 98 96 93 96 97 100 100 100 100 100 100 100 100 100 100 100 100 98 95 89 83 74 56 49 36 27
96 92 81 93 100 100 100 99 96 100 100 100 100 100 98 93 94 96 94 95 100 97 98 100 100 100 100 100 100 98 92 82 76 67 59 53 44 34
98 94 94 93 97 100 100 99 100 100 100 100 100 99 90 83 84 88 92 93 93 97 96 96 98 100 100 94 97 94 89 75 70 69 61 53 43 36

GFSNE_250_rhum_078.txt.gz
RH
100 100 89 98 100 100 100 100 91 85 97 100 100 92 100 100 100 100 100 100 97 73 92 88 59 50 45 40 43 42 42 45 46 42 45 55 79 78
100 100 99 100 100 100 100 100 100 92 100 96 100 100 95 100 100 100 100 100 80 86 74 62 50 40 38 41 44 42 46 44 45 45 39 56 80 86
100 100 100 100 100 80 71 80 98 100 100 100 100 100 100 100 100 95 96 79 77 74 63 45 35 33 36 36 34 35 40 44 39 39 48 72 81 90
100 100 100 100 100 100 87 100 82 100 95 56 100 88 100 100 68 60 52 88 67 55 40 31 32 29 24 26 28 31 31 38 58 59 63 68 79 87
100 100 100 100 100 100 100 100 90 100 100 100 87 96 88 65 80 66 53 44 34 33 29 28 24 22 24 25 30 34 36 39 40 64 74 73 80 92
96 100 90 100 68 69 60 92 96 63 97 100 100 99 92 56 43 38 33 28 25 24 21 20 20 22 23 27 29 32 39 41 50 52 62 78 84 84
99 100 82 81 66 98 98 92 100 100 98 88 97 83 65 61 31 24 24 22 20 18 17 18 20 24 28 32 37 38 40 41 52 60 64 72 82 88
100 100 72 100 100 80 100 100 65 71 78 100 92 80 86 26 23 21 20 19 16 16 19 23 28 32 36 38 42 46 53 50 59 67 69 72 83 92
100 90 100 100 97 95 87 100 100 73 70 81 68 48 25 22 22 19 18 16 19 23 27 30 32 36 39 43 52 55 62 60 65 75 78 89 97 98
100 92 100 91 96 92 92 95 92 84 83 67 23 24 23 19 19 18 18 22 26 25 26 27 30 34 37 45 51 58 74 75 89 94 97 100 100 100
97 100 100 82 80 90 50 72 63 42 26 26 26 20 19 19 19 23 25 24 21 23 27 28 31 35 41 49 59 73 94 96 100 100 99 99 98 99
80 88 93 60 70 65 24 23 22 25 26 20 18 19 20 22 24 24 21 22 26 26 32 34 36 42 63 92 96 100 100 100 100 100 100 100 100 100
84 83 80 60 30 26 24 25 26 21 20 20 23 27 26 25 27 30 31 31 34 36 39 45 54 79 85 93 95 98 100 100 100 100 100 100 100 100
30 27 26 27 26 25 24 21 23 24 27 29 28 26 27 26 39 41 44 47 50 54 57 64 76 76 89 94 96 98 100 100 100 100 100 100 100 100
25 27 26 25 25 25 26 29 32 32 32 28 29 30 36 39 50 56 60 63 61 64 72 76 83 92 96 96 96 100 100 100 100 100 97 97 99 99
30 30 32 30 29 33 41 38 32 34 34 34 38 44 48 61 66 65 78 82 78 78 88 78 85 91 94 96 95 94 98 98 100 100 99 100 99 96
36 36 38 39 48 47 41 38 37 40 44 56 59 66 75 73 72 76 79 81 95 94 94 92 96 100 100 100 100 100 100 100 100 98 96 96 97 94
45 51 60 51 48 45 52 46 47 54 74 90 87 88 85 74 75 84 91 94 95 99 100 100 99 100 100 100 97 98 100 99 98 99 99 92 86 88
57 68 68 60 56 65 66 65 71 86 98 98 99 97 95 94 94 91 96 95 95 95 93 92 99 100 100 97 98 97 96 99 100 100 100 100 96 91
90 86 74 74 85 83 88 87 91 94 96 100 100 100 100 100 100 100 99 99 98 98 98 96 90 85 82 86 90 88 95 100 100 100 100 100 99 86
91 82 78 92 94 94 94 97 97 93 94 100 100 100 100 100 100 100 100 94 88 90 96 98 93 90 95 94 92 95 96 98 100 100 100 94 89 83
94 97 97 100 100 98 97 96 93 92 94 100 100 98 100 100 100 100 100 100 100 100 100 100 98 94 92 94 94 94 90 88 88 91 92 86 83 81
93 100 100 100 100 100 100 100 96 93 91 99 100 100 100 100 100 100 100 100 100 94 93 93 91 90 95 99 97 92 90 90 91 89 88 88 82 69

GFSNE_250_rhum_081.txt.gz
RH
86 60 82 79 100 96 100 100 100 100 100 82 100 100 76 95 100 100 100 100 88 76 99 100 100 100 98 87 81 30 26 26 29 31 35 44 47 50
100 100 100 100 76 100 100 100 100 82 98 100 100 99 96 99 100 100 100 100 53 73 100 65 64 85 75 73 32 24 25 24 24 27 30 42 48 47
100 100 88 100 100 100 100 100 100 100 91 100 100 100 99 100 100 85 96 70 70 81 81 100 76 96 74 65 23 22 22 21 24 25 36 38 43 51
100 100 100 100 100 100 90 100 99 100 96 100 99 98 100 100 94 78 92 83 100 100 55 59 73 38 43 23 21 21 18 19 23 31 34 45 42 82
100 100 100 98 100 100 100 100 100 100 90 81 100 100 100 99 88 78 70 58 64 100 86 70 35 22 22 18 19 19 20 23 25 36 49 53 85 78
100 100 85 100 100 100 100 97 100 100 100 99 100 88 81 100 80 80 89 98 94 73 37 31 22 19 17 16 19 24 30 36 36 39 67 83 90 95
100 100 100 100 100 100 100 100 100 100 100 72 88 86 77 73 100 100 100 77 54 39 25 20 17 16 16 18 25 32 38 47 56 64 62 69 90 82
65 67 74 73 100 100 100 87 100 80 64 100 87 73 93 100 87 89 71 64 58 39 20 16 15 16 20 26 30 31 38 48 60 59 68 77 87 92
100 100 100 87 91 100 100 100 100 100 96 79 67 95 96 100 91 78 61 48 40 21 14 15 20 21 23 22 23 27 35 42 49 60 70 76 83 90
96 100 77 68 100 100 100 90 100 95 81 86 98 99 68 69 84 53 35 19 20 16 17 22 21 20 20 23 26 32 39 48 56 66 82 88 94 99
48 88 100 100 100 100 100 100 100 98 99 100 88 85 63 61 48 31 20 19 16 19 20 20 22 22 23 27 32 37 47 56 65 82 90 100 100 100
100 99 94 97 100 100 100 94 92 97 94 99 78 59 47 59 17 20 18 17 24 20 21 22 25 28 29 38 42 55 65 75 92 98 100 100 100 100
100 100 100 99 100 100 100 100 100 100 94 77 57 57 22 20 22 18 21 26 23 23 27 30 35 34 35 39 49 59 66 83 99 99 100 100 100 100
100 100 100 100 100 100 99 100 98 76 68 64 31 21 22 21 20 25 26 25 30 33 40 44 46 42 48 55 62 75 79 86 96 98 100 100 100 100
100 99 78 75 90 91 91 80 72 51 28 26 24 22 22 24 28 29 28 32 44 51 58 63 64 64 72 72 82 81 92 95 99 99 100 100 100 100
56 61 60 49 39 39 41 36 30 26 26 26 26 28 29 33 31 32 38 51 66 71 68 74 83 84 90 94 92 93 100 100 100 99 100 100 100 99
25 27 27 31 32 37 40 35 33 33 35 38 41 41 37 37 38 45 67 78 81 76 76 77 90 96 94 96 96 97 100 100 99 100 100 100 100 100
26 26 30 36 45 49 49 52 54 51 52 59 49 44 45 52 58 79 86 91 90 85 84 86 92 95 94 94 94 93 93 98 100 99 98 96 96 98
30 34 38 43 51 52 61 73 67 64 72 65 52 55 68 77 87 91 96 96 89 84 80 83 88 90 92 94 89 93 97 98 100 100 99 99 96 95
30 39 49 57 68 70 70 74 70 84 80 70 69 84 93 99 99 98 100 99 95 92 86 86 93 96 94 98 100 95 94 95 96 97 96 92 89 87
24 37 51 66 80 82 86 84 89 93 87 82 88 94 98 100 100 100 100 100 100 100 98 100 100 99 93 93 89 84 82 83 90 97 97 93 92 90
21 28 43 58 71 80 82 88 100 100 92 89 94 98 100 100 100 100 100 100 100 100 99 98 98 100 93 93 92 90 89 89 92 99 100 100 97 95
18 24 40 52 58 72 85 99 100 98 98 100 100 100 100 100 100 100 100 100 100 100 99 94 94 97 98 99 97 94 94 96 96 98 98 98 97 89

GFSNE_250_rhum_084.txt.gz
RH
100 100 100 100 100 100 92 100 68 94 94 85 100 100 75 69 64 61 92 100 100 86 96 100 98 84 71 79 95 80 79 60 42 22 20 18 20 23
100 100 100 100 100 100 100 83 88 100 100 97 90 100 82 93 87 86 91 96 98 100 100 100 80 74 74 87 75 77 65 34 20 17 17 17 19 22
100 100 100 98 99 96 100 100 82 100 100 100 99 100 95 98 93 98 90 85 100 100 100 100 91 94 96 92 82 52 41 18 16 15 16 18 21 26
99 100 100 94 99 94 97 100 99 100 85 100 100 96 94 100 100 94 98 100 100 100 100 80 48 91 100 79 77 37 20 15 14 16 19 27 30 32
100 100 100 100 100 100 100 100 100 100 98 90 100 100 100 98 90 86 100 100 100 86 82 100 100 100 84 54 42 21 18 14 16 22 27 38 40 44
100 100 100 100 100 100 100 100 100 100 100 100 100 100 77 78 98 100 100 96 61 84 89 94 87 84 70 69 45 15 14 16 20 24 32 42 54 74
100 100 100 100 100 99 98 100 100 90 100 100 84 98 86 100 100 97 56 43 97 74 96 100 73 65 84 34 22 14 16 18 21 26 33 40 54 80
85 100 88 98 85 100 100 100 90 100 100 100 100 100 83 66 100 100 91 77 75 66 99 89 80 84 58 29 14 16 17 18 20 25 31 44 51 66
87 100 100 100 99 100 100 100 96 89 89 100 83 100 100 100 84 78 100 60 74 95 78 92 80 77 33 16 16 17 18 19 24 27 32 42 50 65
100 100 100 100 100 100 100 100 100 100 100 100 100 100 100 99 92 81 92 91 90 99 95 59 59 47 16 16 19 18 19 22 24 27 34 51 80 87
100 100 100 100 100 100 100 100 100 97 88 83 100 84 55 72 92 96 100 100 100 95 57 51 31 18 16 20 20 20 25 24 26 28 37 52 69 77
81 100 100 100 86 81 82 74 99 98 47 50 56 66 100 100 99 92 100 100 98 70 37 22 20 19 23 22 25 28 30 28 29 32 42 62 80 85
100 100 100 87 77 69 62 61 60 95 84 100 78 100 100 100 99 82 98 87 76 54 19 21 21 25 24 29 34 35 35 32 37 49 55 66 76 87
58 54 68 76 69 86 100 100 98 100 100 100 98 100 100 87 87 88 81 66 54 20 20 25 30 28 31 43 42 43 46 50 53 61 68 75 89 98
61 61 68 80 87 76 58 72 93 100 93 83 87 95 99 81 62 68 38 27 25 24 28 33 35 44 53 53 47 53 60 64 73 76 84 93 98 97
23 25 30 36 20 21 29 33 45 52 58 71 77 62 56 53 31 31 33 36 31 35 37 39 57 71 72 65 66 66 68 78 85 83 89 96 97 94
22 22 21 23 25 28 31 39 41 43 49 61 64 52 57 48 46 47 50 50 48 48 47 63 80 85 78 77 77 82 86 86 86 88 91 95 95 96
19 21 22 25 31 41 50 51 55 61 70 74 82 82 75 76 67 78 67 66 63 58 66 89 94 90 89 84 80 86 94 95 95 95 95 94 91 95
10 14 19 21 23 32 50 65 74 71 76 89 96 92 94 95 100 96 78 76 74 81 91 98 98 100 97 89 89 91 87 88 92 95 97 95 90 90
7 10 12 14 18 21 46 63 78 79 86 93 96 98 100 100 100 98 86 91 94 96 99 98 100 97 90 87 87 93 98 98 94 92 96 95 89 89
6 8 9 11 14 16 46 71 82 89 89 95 95 97 99 100 100 100 98 98 100 98 97 99 100 95 96 92 95 100 99 99 100 100 100 94 94 92
6 7 9 10 15 25 54 78 84 85 87 96 98 98 100 100 100 100 100 100 100 99 99 94 99 97 96 100 100 100 100 100 100 100 97 95 97 93
6 7 9 10 16 28 59 77 76 79 98 100 100 95 100 100 100 100 100 100 100 100 100 97 98 100 100 100 100 100 95 92 98 100 97 91 90 95

GFSNE_250_rhum_087.txt.gz
RH
100 100 100 100 100 100 100 100 100 100 100 92 100 100 99 100 98 93 72 53 72 79 82 87 75 79 97 100 99 100 100 76 89 72 96 45 57 38
100 100 100 100 100 100 100 100 100 100 100 100 100 100 100 100 100 96 67 60 76 87 87 93 65 76 93 100 100 95 80 95 65 82 52 47 28 21
100 100 100 100 100 100 100 100 100 100 100 100 100 100 100 100 86 65 65 74 100 100 100 92 84 100 100 100 100 84 71 71 58 80 49 33 20 16
100 100 100 100 100 100 98 100 100 79 75 99 100 100 94 92 70 66 97 100 100 91 100 99 75 100 100 99 98 100 84 80 63 65 45 22 16 18
100 98 92 85 86 76 65 66 76 64 75 65 68 58 56 65 95 100 100 100 100 100 74 97 100 100 96 99 100 70 59 69 58 63 18 17 16 20
94 81 76 80 81 70 87 78 97 80 67 57 61 88 74 82 100 98 89 100 73 85 100 100 88 97 100 95 60 62 63 77 63 36 17 15 15 20
90 79 96 89 100 100 83 90 86 72 100 98 94 100 100 100 100 98 88 100 100 100 100 100 79 97 82 78 52 50 66 80 64 33 15 16 16 20
100 100 100 100 100 92 100 100 100 94 100 92 100 100 100 100 100 100 100 100 84 100 100 100 100 90 80 72 65 67 83 57 45 17 16 16 18 22
100 100 100 100 100 100 100 91 97 100 100 100 100 95 100 100 100 100 100 96 100 98 100 100 89 74 49 75 79 77 78 46 24 17 16 16 22 22
100 100 100 100 100 100 100 100 100 100 100 100 100 94 94 100 100 100 100 100 82 90 82 82 86 67 89 98 92 68 61 33 19 16 17 23 24 25
100 100 100 91 100 100 100 100 100 97 88 100 100 100 100 100 100 100 95 96 100 70 81 78 90 75 71 90 82 51 44 22 20 19 24 26 25 28
100 100 100 100 100 98 85 100 100 100 98 100 100 100 100 92 100 100 100 100 96 99 98 100 84 90 98 86 59 26 22 23 22 26 30 29 28 34
97 100 100 100 100 100 99 100 95 91 99 100 100 100 99 99 100 100 96 94 90 96 76 74 71 95 80 58 26 27 26 28 30 36 36 35 36 42
80 84 98 94 97 92 92 88 86 89 81 80 77 71 80 83 87 95 85 85 91 98 80 71 75 55 47 32 33 31 33 39 46 46 43 40 49 54
52 48 58 61 59 61 45 52 33 31 34 44 66 80 82 79 73 80 100 100 84 59 70 70 69 53 39 45 43 38 45 55 58 56 50 54 65 69
17 24 30 42 44 44 23 20 19 23 36 33 48 55 46 49 53 60 71 83 90 85 90 89 73 60 62 60 53 55 63 67 65 62 67 68 76 85
19 26 28 24 22 22 23 26 26 26 27 30 32 41 54 59 62 73 94 100 99 89 98 97 87 93 79 69 75 84 81 78 80 78 80 82 83 76
19 17 10 16 25 30 30 30 33 36 39 39 40 51 68 70 80 91 100 100 100 98 100 100 100 99 89 84 91 100 95 97 92 93 96 97 90 88
4 4 6 7 10 10 14 18 34 44 48 47 53 64 72 81 94 100 100 100 100 100 100 100 100 99 100 98 100 100 99 95 91 92 95 97 96 94
5 5 5 6 7 7 9 12 17 28 33 34 38 58 72 89 100 100 100 100 100 100 100 100 100 100 100 100 100 100 99 96 97 100 96 90 85 85
7 7 7 7 6 7 8 10 12 16 20 23 44 66 88 97 100 100 100 100 100 100 99 97 100 100 92 100 100 100 100 100 100 96 92 91 88 89
6 7 8 8 8 7 8 9 11 14 20 28 46 83 88 99 100 100 100 100 100 100 100 100 100 100 100 100 100 100 100 100 100 100 98 96 97 97
6 7 8 8 8 8 9 9 11 14 20 35 65 73 89 100 100 100 100 100 100 100 100 100 100 100 100 100 100 100 100 100 100 97 98 98 96 95

GFSNE_250_rhum_090.txt.gz
RH
100 100 100 100 100 100 100 100 100 100 100 100 100 98 100 100 99 100 100 100 82 100 78 76 82 89 70 52 47 75 100 100 80 100 100 97 100 99
100 100 100 100 100 100 100 100 100 100 100 100 100 100 100 100 100 100 100 100 100 96 90 88 78 63 53 70 62 95 100 90 99 100 100 76 97 79
100 100 100 98 100 100 100 100 100 100 100 100 100 100 100 100 100 100 99 92 92 88 100 80 53 49 48 88 97 91 94 100 100 100 100 98 89 87
96 100 100 100 100 100 100 100 100 100 100 100 100 100 100 100 100 93 100 100 85 92 70 81 78 57 72 71 88 100 100 100 100 100 100 73 66 51
99 100 100 100 100 98 100 100 100 100 100 100 100 100 100 100 93 83 87 86 69 82 67 62 46 52 81 100 100 100 100 93 100 100 66 78 61 50
98 92 79 89 100 100 93 64 63 66 88 85 86 100 97 91 74 62 57 38 59 66 62 93 71 94 100 100 99 85 85 100 93 79 99 67 55 57
89 94 99 90 82 71 91 81 83 70 72 62 62 63 59 52 46 50 51 79 70 95 98 100 100 100 100 99 76 100 100 81 65 77 75 70 51 41
86 85 89 76 74 87 86 79 82 76 65 68 53 66 46 53 55 76 84 100 100 98 100 99 91 100 100 100 100 100 92 85 85 88 76 48 45 29
100 86 74 87 98 100 100 100 94 90 91 90 92 100 88 100 100 100 100 100 100 100 100 100 100 100 100 79 100 92 77 87 94 76 55 35 22 17
100 100 88 100 94 100 100 99 100 100 100 100 92 100 100 100 100 100 100 100 100 100 96 100 100 71 100 96 99 95 89 88 82 63 64 20 18 20
100 100 100 100 100 100 100 100 100 100 100 100 97 100 100 100 100 100 100 100 100 98 100 94 100 100 98 100 98 100 85 85 61 63 25 26 22 21
100 100 100 100 100 100 100 100 100 100 100 100 100 100 100 100 100 100 100 100 100 99 99 100 100 100 96 92 98 80 99 62 42 34 30 34 26 28
98 100 100 100 100 100 100 100 100 100 100 100 100 100 96 98 100 100 100 100 100 99 95 100 92 67 99 100 91 86 52 45 45 40 45 36 34 41
69 73 89 96 90 87 80 81 91 100 100 100 100 100 100 100 100 98 100 100 92 92 90 86 57 86 97 93 86 73 60 54 56 62 58 46 52 52
19 21 36 43 34 32 33 49 62 53 56 76 72 71 79 71 63 66 56 52 79 85 71 66 76 98 87 74 85 79 65 73 79 80 67 70 70 60
25 25 24 23 19 19 21 26 34 45 41 43 58 50 32 44 44 45 42 42 44 38 47 80 76 86 78 87 79 86 82 92 96 86 90 87 80 69
18 28 29 25 30 39 47 44 38 38 42 51 46 33 38 39 41 46 48 43 42 48 76 92 93 94 93 88 88 94 99 100 100 97 99 94 90 80
4 5 8 9 17 29 31 32 31 39 48 46 38 39 51 61 59 52 60 64 63 73 93 95 98 100 96 90 91 98 100 100 99 100 100 100 94 89
4 4 4 5 5 6 7 10 11 12 18 26 28 35 50 79 78 66 75 80 77 93 99 98 100 100 100 84 97 97 97 100 100 100 100 100 100 100
6 6 7 7 6 5 5 6 6 8 10 13 16 25 44 49 57 65 81 69 88 100 100 100 100 100 88 97 96 92 100 100 100 100 100 100 100 100
5 6 7 7 8 8 8 7 6 7 8 9 12 15 22 24 55 74 60 69 86 100 100 100 100 100 100 99 90 95 100 100 100 100 100 100 100 100
4 5 5 6 7 8 8 9 9 8 8 9 10 14 17 22 39 53 64 73 92 100 100 99 100 100 100 86 92 98 100 97 100 100 100 100 100 100
4 4 5 6 6 7 8 9 10 11 10 10 11 13 16 22 34 56 76 70 100 100 100 100 100 100 100 99 98 100 100 100 100 100 100 100 100 99

GFSNE_250_rhum_093.txt.gz
RH
74 66 54 62 58 60 91 84 89 100 80 71 99 100 100 100 100 99 98 87 90 99 99 100 100 100 100 96 97 60 60 43 51 54 44 83 100 100
95 99 94 100 100 82 89 100 100 90 97 100 99 96 100 100 100 100 100 100 100 100 100 100 100 100 100 90 81 69 59 85 100 80 68 82 100 100
100 100 100 100 96 100 100 100 97 100 100 100 100 100 100 100 100 100 100 100 100 100 100 100 100 98 91 80 66 69 68 49 45 52 87 100 100 100
100 100 100 100 100 100 100 100 100 100 100 100 96 100 100 100 100 100 100 100 100 100 100 83 84 77 58 60 85 58 48 46 56 80 100 100 100 100
100 100 100 99 100 100 100 100 100 100 100 100 100 98 100 97 76 95 92 98 100 100 87 80 70 59 52 45 48 53 71 86 100 82 100 100 95 76
100 100 100 100 100 100 100 100 100 100 100 100 100 97 100 100 100 98 79 81 95 83 61 58 62 57 47 43 75 77 100 100 100 100 100 100 100 82
100 100 100 100 88 100 100 100 100 100 100 100 100 100 92 89 70 74 56 55 64 58 63 57 51 63 72 95 94 100 100 99 91 93 94 91 88 86
100 100 100 100 100 100 100 100 100 100 100 100 100 89 88 85 67 69 53 54 66 63 63 59 99 94 100 100 100 100 100 98 100 83 96 90 100 90
100 100 100 100 100 100 100 100 100 100 98 96 94 98 80 68 70 84 74 65 100 100 100 100 100 100 100 100 100 100 100 100 100 100 100 87 85 62
100 100 100 100 100 100 100 100 100 100 100 100 100 100 100 93 99 100 100 100 100 100 100 100 100 100 100 100 100 98 100 100 93 100 100 78 76 44
84 89 100 100 100 100 100 100 100 100 100 100 99 100 100 100 100 100 100 100 100 100 100 100 100 100 98 100 100 100 100 100 100 95 80 78 49 34
92 100 88 94 99 100 100 100 100 100 100 100 100 100 100 100 100 100 100 100 100 100 100 100 100 82 100 100 100 100 100 93 100 84 63 57 42 42
40 66 87 94 100 95 99 100 100 100 100 100 100 100 100 100 100 100 100 100 100 100 100 100 100 95 89 93 94 100 96 90 82 59 47 59 53 50
18 18 21 29 55 96 97 95 92 91 88 92 100 100 100 100 100 100 100 100 100 100 99 91 77 76 79 81 98 99 95 81 67 58 58 66 66 64
20 21 19 18 20 25 34 37 43 39 41 55 60 71 79 81 84 91 93 88 78 66 61 66 70 67 65 76 84 95 100 82 75 70 74 75 75 88
5 6 10 18 19 19 19 23 24 25 26 32 48 58 58 69 70 69 77 71 59 59 67 51 53 51 50 62 70 91 86 88 75 89 80 86 89 94
4 3 4 4 6 10 19 24 26 27 30 33 36 44 51 52 56 61 57 56 61 60 61 72 66 74 74 60 92 95 91 91 87 93 85 96 94 97
4 5 5 5 4 4 5 6 9 13 20 28 38 46 47 49 51 52 53 59 60 73 80 86 89 90 72 81 100 97 99 96 100 95 90 97 99 99
3 4 4 5 6 6 5 4 5 6 8 14 21 27 32 38 49 55 56 64 70 88 91 86 92 84 75 98 97 100 100 100 100 100 94 94 100 100
3 3 3 4 4 6 7 7 6 5 5 7 9 11 14 21 33 40 44 56 61 58 73 75 98 90 73 98 93 100 100 100 100 100 98 99 100 99
3 3 3 3 3 4 5 7 8 8 8 7 7 8 10 12 14 20 25 38 46 50 51 85 93 82 72 100 100 100 100 97 100 95 100 100 100 97
3 3 3 3 3 4 4 5 7 8 9 10 9 9 8 9 12 14 17 24 41 38 58 62 85 81 98 100 100 100 100 100 98 100 100 100 100 98
3 3 4 4 4 4 4 4 6 8 9 10 11 11 11 10 11 14 16 22 28 40 47 64 78 94 100 100 100 100 100 100 99 100 98 100 100 98

GFSNE_250_rhum_096.txt.gz
RH
100 100 100 100 100 100 100 100 100 100 100 99 94 80 86 100 98 90 98 99 98 100 91 98 100 100 85 100 100 100 96 97 97 70 74 68 53 53
100 100 100 100 100 100 100 100 100 100 97 100 79 69 89 86 68 82 59 81 72 100 100 100 100 99 99 81 85 79 100 94 99 85 64 63 56 54
100 100 98 94 90 89 77 72 63 75 78 86 66 63 78 68 84 100 81 93 100 100 100 100 88 100 100 100 99 89 94 76 68 71 74 65 40 58
100 100 100 100 100 100 100 100 100 89 97 91 100 100 100 86 79 91 100 100 100 100 98 100 100 100 100 100 94 77 67 61 84 80 63 41 55 98
100 100 100 100 100 100 100 100 100 90 100 100 100 100 100 100 100 100 100 100 100 100 92 100 100 100 100 98 93 86 66 47 67 56 44 72 82 93
100 100 100 100 100 100 100 98 100 100 100 100 100 100 100 100 100 100 99 100 98 100 100 100 100 100 99 88 59 66 57 40 52 60 82 100 100 97
100 100 100 100 100 100 100 100 100 100 100 100 100 100 100 100 100 100 100 100 100 100 100 100 97 72 66 57 69 67 52 48 91 99 100 100 100 100
100 100 100 100 100 100 100 100 100 100 100 99 100 95 100 100 100 100 100 87 100 93 82 64 78 68 68 58 54 72 66 75 100 100 100 99 96 100
100 100 100 100 100 100 100 100 100 100 100 100 100 100 100 100 98 96 95 95 63 81 85 85 94 86 98 97 88 99 100 100 100 100 100 100 100 100
100 100 100 100 100 100 100 100 100 100 100 100 100 100 100 100 100 100 100 100 100 100 100 100 100 100 100 100 100 100 100 100 100 100 100 100 100 90
100 100 97 98 100 100 100 100 100 100 100 100 100 100 100 100 100 100 100 100 100 100 100 100 100 100 100 100 100 100 100 100 100 100 100 100 86 100
35 59 70 68 87 86 92 94 100 100 100 100 100 100 100 100 100 100 100 100 100 100 100 100 100 100 100 100 100 100 100 100 97 99 99 91 93 82
33 25 21 19 21 54 69 84 91 100 98 97 100 100 100 100 100 100 100 100 100 100 100 100 100 100 100 100 100 100 95 89 88 83 76 93 95 78
6 9 16 22 22 22 26 25 53 80 83 84 94 100 100 100 100 100 100 100 100 100 100 100 100 100 100 93 74 86 72 63 63 64 95 100 95 75
3 3 4 4 4 11 19 22 22 21 22 30 38 45 74 89 83 84 90 100 100 100 100 100 98 94 82 55 64 72 60 58 64 74 95 100 90 72
3 3 4 4 4 4 4 5 10 17 22 23 24 28 37 42 41 49 59 68 76 76 88 88 75 68 69 75 70 73 84 62 69 78 92 95 86 70
2 2 3 3 3 4 5 5 4 5 8 14 24 28 30 32 33 35 42 54 61 74 81 77 76 76 86 85 76 91 84 78 85 88 100 92 85 77
2 2 2 2 3 3 4 4 5 5 5 6 10 17 25 31 33 36 39 51 60 64 67 78 79 80 85 92 90 95 96 95 91 98 97 88 86 93
2 2 2 2 2 3 3 3 4 5 6 6 6 6 7 13 26 30 34 36 49 60 69 75 81 88 100 95 93 100 95 100 99 100 89 88 95 99
3 3 2 2 2 2 2 3 3 4 5 6 7 7 7 8 8 11 17 26 34 47 65 72 85 92 94 99 100 100 100 99 97 91 88 88 99 100
3 3 3 3 2 2 2 3 3 3 4 6 7 8 9 9 9 10 11 13 18 25 36 66 81 86 96 98 100 100 97 93 93 94 90 95 100 100
2 3 3 3 3 3 2 3 3 3 3 4 6 7 9 10 11 10 11 12 13 18 25 38 45 65 83 92 92 84 90 90 99 95 99 100 100 100
2 2 2 3 3 3 3 3 3 3 4 4 5 6 7 9 11 11 10 12 13 16 19 27 49 50 60 85 80 81 94 98 100 100 100 100 100 100

GFSNE_250_rhum_099.txt.gz
RH
100 100 100 100 100 100 100 100 100 100 100 100 100 100 100 100 100 100 100 100 100 100 100 100 98 83 69 66 59 56 93 76 100 100 83 92 93 99
100 100 100 100 100 100 100 100 100 100 100 97 100 100 100 100 100 100 100 100 100 100 100 94 88 73 52 62 37 63 96 100 91 96 98 100 73 97
100 100 100 100 100 100 98 100 99 98 92 98 100 100 100 100 100 100 99 91 79 88 73 64 85 50 60 53 100 100 76 93 99 100 95 87 100 73
100 100 100 100 100 100 100 100 100 100 100 100 100 100 100 100 98 92 98 89 59 68 52 80 68 83 59 100 100 100 98 70 100 90 99 97 76 64
100 100 100 100 100 100 100 100 100 100 100 100 100 100 100 100 86 70 61 72 78 82 69 83 82 94 100 96 95 78 86 100 100 98 84 80 74 55
100 100 100 100 100 100 100 100 100 100 100 100 100 100 99 98 100 88 88 100 100 100 98 91 84 88 85 93 98 99 100 98 93 91 88 63 54 45
100 100 100 100 100 100 100 100 100 100 100 100 100 100 100 100 100 100 100 100 100 100 99 100 100 88 100 96 91 98 100 84 51 57 54 62 63 62
100 100 100 100 100 100 100 100 100 100 100 100 100 100 100 100 99 100 100 100 100 100 100 100 100 98 74 86 97 83 68 73 70 62 60 65 87 99
100 100 100 100 100 100 100 100 100 100 100 100 100 100 100 100 100 100 100 100 100 99 97 94 81 100 100 89 82 73 79 60 77 82 76 98 100 100
97 100 100 100 100 100 100 100 100 100 100 98 100 100 100 100 100 100 100 100 100 100 100 97 100 95 88 100 100 89 96 100 98 100 100 100 100 99
51 57 76 98 100 100 95 93 100 100 95 100 100 100 100 100 100 100 100 100 100 100 100 100 100 100 100 100 100 100 100 100 100 100 100 100 100 100
49 46 39 40 45 62 64 75 73 77 79 93 90 92 100 100 100 100 100 100 100 100 100 100 100 100 100 100 100 100 100 100 100 100 100 100 100 100
53 47 45 48 48 46 44 38 34 46 54 58 66 79 96 100 99 100 100 100 100 100 100 100 100 100 100 100 100 100 100 100 100 100 100 100 86 98
30 32 33 23 14 11 10 13 17 21 28 32 34 47 60 60 76 91 100 100 100 100 100 100 100 100 100 100 100 100 100 100 100 100 100 100 87 74
23 11 7 5 4 4 4 4 4 4 5 5 7 22 37 37 48 54 73 83 100 100 100 100 100 100 100 100 100 100 100 100 100 100 84 85 71 60
5 4 4 3 2 2 2 2 2 3 4 4 5 6 10 23 33 37 45 43 66 73 73 92 100 99 100 100 100 88 78 98 93 80 89 83 76 69
3 3 3 2 2 2 2 2 2 2 3 4 4 5 6 7 10 24 35 40 42 43 60 66 76 73 86 91 79 78 79 86 84 94 86 84 92 80
3 3 3 3 2 2 2 2 2 2 2 3 3 4 5 6 7 10 18 26 36 45 46 50 58 70 82 82 87 88 96 92 96 97 100 98 97 91
3 3 3 3 3 3 3 3 2 2 2 3 3 4 4 6 7 8 8 10 25 34 37 46 54 67 72 89 94 95 96 99 100 100 100 94 92 93
3 3 3 3 3 3 3 3 3 2 2 2 3 3 4 4 6 7 9 9 11 14 20 34 52 63 74 81 93 98 100 100 100 100 100 98 90 98
2 2 2 2 2 2 2 3 3 3 3 3 3 3 4 4 5 7 9 9 10 12 14 21 30 46 70 82 99 100 100 100 100 100 100 91 93 100
2 2 2 2 2 2 2 2 3 3 3 3 3 3 4 4 5 6 8 10 11 12 14 16 22 34 49 64 85 96 93 100 100 100 100 100 100 95
2 2 2 2 2 2 2 2 3 3 3 3 3 3 4 4 5 6 8 10 11 13 14 14 19 28 38 53 58 76 88 93 98 100 100 100 100 99

GFSNE_250_rhum_102.txt.gz
RH
38 46 49 54 59 52 46 67 100 100 100 100 100 100 100 100 100 100 100 100 100 100 100 100 100 100 100 100 100 100 100 97 87 85 58 45 37 77
68 66 55 47 37 42 71 100 100 100 100 100 100 100 100 100 100 96 100 100 100 100 100 100 100 100 100 100 100 100 94 80 67 79 74 49 98 77
61 59 62 71 92 100 100 100 100 100 100 100 100 100 100 100 100 100 100 100 100 100 100 100 100 100 100 100 100 100 85 76 65 45 58 88 46 100
68 89 100 100 100 100 100 100 100 100 100 100 100 100 100 100 100 100 100 100 100 100 100 100 100 100 100 100 100 100 82 61 67 59 80 100 84 77
100 100 100 100 100 100 100 100 100 100 100 100 100 100 100 100 100 100 100 96 100 100 80 72 100 100 97 99 84 70 69 66 40 52 47 68 96 100
100 100 100 100 100 100 100 100 100 100 100 100 100 100 100 100 100 100 100 100 100 98 90 99 100 100 100 99 75 50 64 68 90 72 80 100 84 93
100 100 100 100 100 100 100 100 100 100 100 100 100 99 100 100 100 100 100 100 100 96 100 100 93 88 82 68 62 54 64 40 54 97 66 66 99 86
100 100 100 100 100 100 100 100 100 100 100 100 100 100 100 100 100 100 100 100 100 100 100 100 98 99 98 98 99 87 82 91 80 75 91 75 54 72
94 100 100 98 100 100 100 100 100 100 100 100 100 100 100 100 100 100 100 100 100 100 100 100 100 100 100 100 100 100 100 98 81 88 81 94 84 81
42 49 68 84 90 97 100 100 100 96 97 100 100 100 100 100 100 100 100 100 100 100 100 100 100 100 100 100 100 100 100 99 100 99 100 96 95 85
50 48 45 44 43 48 58 62 80 93 100 100 98 100 100 100 100 100 100 100 100 100 100 100 100 100 100 100 100 100 100 100 100 100 100 100 92 86
65 67 62 60 58 56 51 51 42 41 47 61 80 95 97 97 90 100 100 100 100 100 100 100 100 100 100 100 100 100 100 100 100 100 100 100 100 97
57 57 56 63 64 62 57 57 55 54 50 51 49 42 39 45 51 62 76 80 94 100 100 100 100 100 100 100 100 100 100 100 100 100 100 100 95 100
34 37 39 42 42 41 40 38 35 43 48 49 48 44 42 44 43 44 45 43 48 66 89 98 100 100 100 100 100 100 100 100 100 100 100 100 100 100
17 19 18 19 20 19 21 19 20 24 28 33 37 39 39 38 36 37 44 48 46 58 50 54 77 88 100 100 100 100 100 100 100 100 100 100 100 100
15 16 16 15 13 13 16 21 24 23 18 13 10 9 8 7 7 8 9 10 20 41 46 49 57 64 80 98 100 100 100 100 100 100 100 100 100 100
9 11 14 15 15 14 10 6 5 4 4 3 3 3 3 3 4 4 4 5 6 9 14 26 40 48 61 79 86 95 100 99 94 92 98 97 100 100
10 7 4 4 4 4 4 4 4 4 4 4 4 4 4 3 3 3 4 4 5 7 9 14 19 26 41 54 54 65 77 82 90 97 100 100 100 93
4 3 4 4 4 4 4 4 4 4 4 4 4 4 4 4 3 3 4 4 5 6 8 10 10 10 18 33 49 60 70 77 79 96 100 97 92 99
3 4 4 3 3 3 3 3 3 3 3 3 3 4 4 4 3 3 3 4 6 7 7 8 8 8 12 23 44 56 72 87 99 100 99 97 100 98
2 2 2 2 2 2 2 2 3 3 3 3 3 3 4 4 4 3 4 5 6 7 8 8 8 9 15 19 27 49 74 92 95 98 100 100 100 100
2 2 2 2 2 2 2 2 2 2 2 3 3 3 4 4 4 4 4 4 6 7 8 9 9 14 15 18 24 42 66 90 93 98 100 100 100 100
2 2 2 2 2 2 2 2 2 2 2 3 3 3 4 4 4 4 4 5 6 7 8 10 11 13 16 18 24 34 56 73 84 96 98 100 100 100

GFSNE_250_rhum_105.txt.gz
RH
36 45 54 53 51 56 60 63 74 71 74 69 71 63 62 67 69 95 100 100 100 100 100 100 99 100 100 97 100 100 100 100 100 100 100 100 100 100
32 36 40 41 40 49 49 50 42 47 60 71 72 73 71 65 74 98 100 100 100 100 100 100 100 100 100 96 100 100 100 100 100 96 100 100 100 100
14 14 14 15 18 17 22 38 62 66 77 91 79 68 59 60 99 100 100 100 100 100 100 100 100 100 100 100 100 98 100 98 100 100 100 100 100 99
16 21 28 46 60 73 84 93 100 98 88 72 87 84 99 100 100 100 100 100 100 100 100 100 100 100 100 100 100 100 100 100 100 85 65 100 100 100
42 59 61 80 92 87 100 98 100 99 88 96 100 100 100 100 100 100 100 100 100 100 100 100 100 100 100 100 100 100 100 95 86 98 69 85 100 100
100 100 100 100 100 100 100 100 100 100 100 100 100 100 100 100 100 100 100 100 100 100 100 100 100 100 100 100 100 100 100 97 96 100 65 70 100 100
100 100 100 100 100 100 100 100 100 100 100 100 100 100 100 100 100 100 100 100 100 100 100 100 100 100 94 95 100 95 86 81 97 98 87 96 100 84
100 100 100 100 100 100 100 100 100 100 100 100 100 100 100 100 100 100 100 100 100 100 100 100 100 100 96 95 99 82 87 80 67 68 74 77 71 60
56 66 78 86 93 100 100 100 100 100 100 100 100 100 100 100 100 100 100 100 100 100 100 100 100 100 100 100 100 100 97 98 100 96 98 93 97 100
44 44 47 57 64 71 86 98 100 100 100 100 100 100 100 100 100 100 100 100 100 100 100 100 100 100 100 100 100 100 100 100 100 100 100 98 98 100
40 39 41 42 43 42 40 44 48 66 82 92 100 100 100 100 100 100 100 100 99 100 100 100 100 100 100 100 100 100 100 100 100 100 100 100 100 100
52 54 52 50 48 45 44 42 43 45 44 47 50 58 78 88 100 98 96 99 100 100 100 100 100 100 100 100 100 100 100 100 100 100 100 100 100 100
51 55 57 61 63 62 60 61 58 54 53 50 46 45 44 47 51 65 79 87 95 97 100 100 100 100 100 100 100 100 100 100 100 100 100 100 100 100
33 32 33 37 42 47 51 55 60 60 60 63 64 64 61 62 60 53 49 48 51 52 55 59 58 63 76 87 99 100 100 100 100 100 100 100 100 100
10 14 17 18 18 18 18 20 24 29 29 34 45 45 51 54 57 56 63 64 60 56 57 59 56 57 57 60 60 65 64 70 75 76 85 99 100 100
5 5 6 6 7 7 8 9 10 13 15 18 20 28 36 41 44 42 45 46 50 54 62 60 59 57 55 62 59 70 74 58 66 68 71 76 82 100
5 5 5 5 5 6 7 8 8 9 10 11 14 16 19 25 32 29 27 24 24 30 34 38 40 48 53 60 58 59 69 73 68 66 69 66 72 90
6 5 4 4 4 5 5 6 6 7 8 9 11 14 17 19 20 19 18 17 18 22 27 30 36 43 44 50 54 52 58 55 48 56 61 60 64 76
3 3 3 3 3 3 3 3 3 3 3 3 3 4 4 4 4 5 5 5 5 6 8 9 10 11 11 12 16 20 22 22 25 26 33 48 60 68
3 3 3 3 3 3 3 3 3 3 3 4 4 4 4 5 5 5 5 5 6 6 7 7 8 9 9 11 14 15 15 15 15 17 28 27 50 72
2 2 2 2 2 2 2 2 2 2 2 2 3 3 3 3 4 4 4 4 5 6 6 7 8 9 11 12 13 13 16 23 21 32 18 31 59 81
2 2 2 2 2 2 2 2 2 2 2 2 2 2 2 3 3 3 4 4 5 5 6 7 7 8 9 10 11 13 19 26 24 26 35 32 36 77
2 2 2 2 2 2 2 2 2 2 2 2 2 2 2 2 2 3 3 4 5 5 6 7 7 7 8 8 8 10 13 20 21 33 35 46 73 82

GFSNE_250_rhum_108.txt.gz
RH
8 8 10 12 14 17 20 25 32 31 38 48 64 70 66 70 77 78 79 79 86 75 59 72 88 100 100 100 100 100 100 100 100 100 100 96 100 98
8 9 15 11 12 12 12 12 15 21 31 50 66 79 74 72 85 89 83 90 97 87 79 85 94 95 100 100 100 100 100 100 100 100 100 88 93 80
11 11 16 16 12 13 16 19 20 18 24 37 50 64 68 60 61 63 66 71 80 88 86 85 98 100 100 100 100 100 100 100 100 100 100 100 100 100
16 19 49 27 16 16 17 19 20 19 23 24 23 23 23 34 41 59 75 72 75 96 100 94 92 97 100 100 100 100 100 100 100 100 100 100 100 100
18 22 20 22 20 20 30 36 38 41 34 47 56 81 94 90 97 98 97 95 86 85 86 86 95 100 100 100 100 100 100 100 100 100 98 87 84 100
34 30 30 35 37 52 46 39 44 72 90 100 92 94 100 100 100 100 100 100 100 100 99 100 100 100 100 100 100 100 100 100 100 100 100 100 100 100
83 83 76 81 78 84 79 96 85 77 89 100 99 83 100 100 100 100 100 100 100 100 100 100 100 100 100 100 100 100 100 100 100 98 100 100 100 97
73 70 65 77 100 100 98 100 100 100 100 100 100 99 99 100 100 100 100 100 100 100 100 100 100 100 100 100 100 100 100 100 100 100 100 100 100 100
58 68 72 78 81 91 93 92 96 97 100 100 100 100 100 100 100 100 100 100 100 100 100 100 100 100 100 100 100 100 100 100 100 100 100 100 100 100
40 38 37 40 45 52 72 82 87 96 93 99 99 100 100 100 100 100 100 100 100 100 100 100 100 100 100 100 100 100 100 100 100 100 100 100 99 98
38 36 34 36 39 41 40 40 41 43 45 53 69 77 76 88 100 100 100 100 100 100 100 100 100 100 100 100 100 100 100 100 100 100 100 100 100 100
42 40 37 33 35 39 38 38 39 40 40 39 42 43 45 63 64 72 100 100 100 100 100 100 100 100 100 100 100 100 100 100 100 100 100 100 100 100
19 22 26 29 31 35 40 39 43 41 44 44 42 39 41 43 45 47 54 56 84 99 100 100 95 98 100 100 100 100 100 100 100 100 100 100 100 100
12 13 14 16 15 16 18 21 21 22 33 49 53 52 43 42 42 44 46 46 49 51 53 60 69 76 85 94 100 100 100 100 100 100 100 100 100 100
6 6 6 6 5 6 6 8 9 11 15 22 29 36 45 51 51 53 55 54 50 46 47 49 55 61 62 62 66 67 66 70 73 68 71 72 78 81
4 4 4 4 4 4 4 4 4 4 5 6 8 10 14 21 37 45 51 54 57 64 64 59 55 55 53 58 62 62 69 74 90 88 96 96 96 83
4 4 5 5 6 6 6 6 6 6 6 6 6 6 7 8 10 13 20 26 36 55 68 71 77 79 83 80 74 79 84 92 95 96 99 99 99 99
3 3 2 2 2 2 2 2 2 3 4 6 8 10 10 9 8 8 9 11 14 21 31 40 47 61 67 71 86 99 100 100 100 100 96 99 99 100
3 3 3 3 3 3 3 3 3 2 2 2 3 3 4 7 9 11 12 12 11 12 14 17 19 25 32 47 72 95 100 100 100 100 100 100 100 98
3 3 2 2 2 2 2 2 2 2 2 2 3 3 3 4 4 4 4 6 9 13 18 21 23 23 26 32 44 66 80 97 98 94 92 98 99 90
2 2 2 2 2 2 2 2 2 2 2 2 2 2 3 3 4 4 5 5 5 5 6 6 8 11 17 28 41 49 50 57 60 54 56 64 64 68
2 2 2 2 2 2 2 2 2 2 2 2 2 2 2 2 2 2 3 4 4 5 6 6 7 8 10 11 13 14 19 20 22 25 24 29 34 40
2 2 2 2 2 2 2 2 2 2 2 2 2 2 2 2 2 2 2 2 3 3 4 4 5 6 8 8 10 11 13 13 14 16 19 21 25 50

GFSNE_250_rhum_111.txt.gz
RH
6 7 8 8 8 7 8 8 9 8 10 10 11 12 15 21 28 39 52 62 59 64 66 77 80 82 87 85 97 97 96 100 100 100 100 99 100 100
7 7 8 7 8 9 9 10 10 9 10 10 13 16 17 24 28 35 48 63 55 62 71 83 89 98 98 100 96 100 100 100 100 100 100 100 100 100
9 9 10 11 11 12 11 13 12 10 11 13 16 16 18 21 23 27 31 39 47 60 76 92 100 100 100 100 100 100 100 100 100 100 100 100 100 100
11 11 10 11 12 12 13 19 31 19 13 16 16 14 14 15 18 19 22 31 40 53 72 90 98 91 89 91 95 100 100 100 100 100 100 100 100 100
21 19 17 14 14 14 17 22 37 42 23 26 25 17 19 20 24 34 48 49 50 54 54 50 42 40 40 50 75 99 100 100 100 100 100 100 100 100
39 33 31 31 35 21 23 30 24 33 31 37 50 29 38 39 49 62 54 50 56 58 68 82 79 90 95 100 100 100 100 100 100 100 100 100 100 100
43 48 53 52 54 64 58 53 54 64 63 47 47 64 56 60 60 77 84 93 100 100 100 100 81 95 91 92 95 98 100 100 100 100 100 100 100 100
35 39 45 43 42 49 56 58 62 57 58 54 51 64 59 83 83 86 92 100 100 100 100 100 100 94 100 100 100 88 86 100 100 100 100 100 100 100
34 36 35 35 37 40 44 52 44 54 54 55 78 81 96 72 75 88 92 100 100 100 100 100 100 100 100 100 100 100 100 100 100 100 100 100 100 100
26 29 32 34 35 38 41 43 44 42 46 56 47 61 87 87 100 100 100 100 100 100 96 100 99 100 100 100 100 100 100 100 100 100 100 100 100 100
14 14 17 21 24 27 31 37 41 41 40 41 45 51 55 59 67 99 100 100 100 100 100 100 100 100 100 100 100 100 100 100 100 100 100 100 100 100
11 11 11 12 13 15 17 18 29 36 34 36 39 46 50 54 61 58 74 86 100 100 100 100 100 100 100 100 100 100 100 100 100 99 98 100 100 100
7 8 8 9 10 10 10 11 13 16 17 17 26 38 40 43 48 51 59 66 70 76 97 96 100 100 100 100 100 100 100 100 100 100 100 100 100 100
7 7 7 7 7 7 8 9 9 9 10 12 13 14 17 28 36 44 50 52 55 56 70 65 70 93 100 100 100 100 100 100 100 100 100 100 100 100
5 5 4 4 4 4 4 5 5 6 8 10 11 12 12 12 14 19 31 42 47 51 62 66 61 70 64 85 98 100 100 100 100 100 100 100 100 100
4 4 5 5 5 5 4 4 4 4 4 4 5 6 8 10 10 12 14 16 22 37 49 57 61 59 60 64 61 57 67 96 100 100 100 100 100 100
6 4 3 2 2 2 2 3 3 3 3 4 5 6 5 5 6 6 7 8 10 17 22 29 42 55 63 69 69 68 67 67 68 71 72 72 72 75
3 3 3 3 3 3 3 3 2 2 2 2 2 2 3 5 7 7 6 6 6 7 9 12 17 29 40 53 67 84 85 77 73 77 82 82 86 94
4 4 3 3 3 3 3 2 2 2 2 2 3 3 3 3 3 3 4 7 10 10 8 7 8 11 17 29 48 59 82 87 94 85 85 92 97 100
4 3 3 3 2 2 2 2 2 2 2 2 2 2 2 3 3 4 3 3 3 4 10 12 10 8 9 12 17 26 42 67 91 100 100 97 94 100
3 3 2 2 2 2 2 2 2 2 2 2 2 2 2 2 2 2 3 4 4 4 4 4 7 12 15 14 13 15 18 35 62 80 93 99 100 100
3 3 2 2 2 2 2 2 2 2 2 2 2 2 2 2 2 2 2 2 3 4 5 5 5 5 9 17 22 18 14 17 25 42 63 79 96 100
3 3 2 2 2 2 2 2 2 2 2 2 2 2 2 2 2 2 2 2 2 2 3 4 5 6 6 7 16 25 28 26 24 25 34 44 67 90